Observation data for South Plains 3ENE on 11/18/2019      Previous  Date  Next       Current Mesonet Observations  Soil Data  Daily Summary Page  Observations in Plain Language
KSP2 180600Z 23005KT 02/M01 A3006 RMK A01 T00221007  RH  081%=      5-min Rain = 0
KSP2 180601Z 23005KT 02/M01 A3006 RMK A01 T00221007  RH  081%=      5-min Rain = 0
KSP2 180602Z 23005KT 02/M01 A3006 RMK A01 T00231007  RH  081%=      5-min Rain = 0
KSP2 180603Z 23005KT 02/M01 A3006 RMK A01 T00231007  RH  080%=      5-min Rain = 0
KSP2 180604Z 23005KT 02/M01 A3006 RMK A01 T00241007  RH  080%=      5-min Rain = 0
KSP2 180605Z 23005KT 02/M01 A3006 RMK A01 T00241007  RH  080%=      5-min Rain = 0
KSP2 180606Z 23005KT 02/M01 A3006 RMK A01 T00241008  RH  080%=      5-min Rain = 0
KSP2 180607Z 23004KT 02/M01 A3006 RMK A01 T00231008  RH  080%=      5-min Rain = 0
KSP2 180608Z 24004KT 02/M01 A3005 RMK A01 T00231009  RH  080%=      5-min Rain = 0
KSP2 180609Z 24005KT 02/M01 A3005 RMK A01 T00231008  RH  080%=      5-min Rain = 0
KSP2 180610Z 24005KT 02/M01 A3005 RMK A01 T00221009  RH  080%=      5-min Rain = 0
KSP2 180611Z 24005KT 02/M01 A3005 RMK A01 T00221009  RH  080%=      5-min Rain = 0
KSP2 180612Z 24005KT 02/M01 A3005 RMK A01 T00221009  RH  080%=      5-min Rain = 0
KSP2 180613Z 24005KT 02/M01 A3005 RMK A01 T00221009  RH  080%=      5-min Rain = 0
KSP2 180614Z 24005KT 02/M01 A3005 RMK A01 T00221009  RH  080%=      5-min Rain = 0
KSP2 180615Z 24005KT 02/M01 A3005 RMK A01 T00211009  RH  080%=      5-min Rain = 0
KSP2 180616Z 24005KT 02/M01 A3005 RMK A01 T00211010  RH  080%=      5-min Rain = 0
KSP2 180617Z 23006KT 02/M01 A3005 RMK A01 T00201010  RH  080%=      5-min Rain = 0
KSP2 180618Z 24006KT 02/M01 A3005 RMK A01 T00201009  RH  081%=      5-min Rain = 0
KSP2 180619Z 24005KT 02/M01 A3005 RMK A01 T00201009  RH  081%=      5-min Rain = 0
KSP2 180620Z 24005KT 02/M01 A3005 RMK A01 T00201009  RH  081%=      5-min Rain = 0
KSP2 180621Z 24005KT 02/M01 A3005 RMK A01 T00211009  RH  081%=      5-min Rain = 0
KSP2 180622Z 24005KT 02/M01 A3005 RMK A01 T00211009  RH  081%=      5-min Rain = 0
KSP2 180623Z 24005KT 02/M01 A3005 RMK A01 T00211009  RH  081%=      5-min Rain = 0
KSP2 180624Z 24005KT 02/M01 A3005 RMK A01 T00211009  RH  081%=      5-min Rain = 0
KSP2 180625Z 24005KT 02/M01 A3004 RMK A01 T00211009  RH  081%=      5-min Rain = 0
KSP2 180626Z 24005KT 02/M01 A3004 RMK A01 T00211009  RH  080%=      5-min Rain = 0
KSP2 180627Z 24005KT 02/M01 A3004 RMK A01 T00201009  RH  081%=      5-min Rain = 0
KSP2 180628Z 23005KT 02/M01 A3004 RMK A01 T00211009  RH  081%=      5-min Rain = 0
KSP2 180629Z 23005KT 02/M01 A3004 RMK A01 T00211009  RH  081%=      5-min Rain = 0
KSP2 180630Z 23006KT 02/M01 A3004 RMK A01 T00211008  RH  081%=      5-min Rain = 0
KSP2 180631Z 23005KT 02/M01 A3004 RMK A01 T00211008  RH  081%=      5-min Rain = 0
KSP2 180632Z 23006KT 02/M01 A3004 RMK A01 T00211007  RH  081%=      5-min Rain = 0
KSP2 180633Z 23006KT 02/M01 A3004 RMK A01 T00221007  RH  081%=      5-min Rain = 0
KSP2 180634Z 23006KT 02/M01 A3004 RMK A01 T00231007  RH  081%=      5-min Rain = 0
KSP2 180635Z 23007KT 02/M01 A3004 RMK A01 T00231006  RH  081%=      5-min Rain = 0
KSP2 180636Z 23008KT 02/M01 A3004 RMK A01 T00241005  RH  081%=      5-min Rain = 0
KSP2 180637Z 23008KT 03/M00 A3004 RMK A01 T00261003  RH  081%=      5-min Rain = 0
KSP2 180638Z 23008KT 03/M00 A3004 RMK A01 T00281002  RH  080%=      5-min Rain = 0
KSP2 180639Z 23008KT 03/M00 A3004 RMK A01 T00301002  RH  079%=      5-min Rain = 0
KSP2 180640Z 23007KT 03/M00 A3004 RMK A01 T00301002  RH  079%=      5-min Rain = 0
KSP2 180641Z 22008KT 03/M00 A3004 RMK A01 T00311002  RH  079%=      5-min Rain = 0
KSP2 180642Z 23008KT 03/M00 A3004 RMK A01 T00321002  RH  078%=      5-min Rain = 0
KSP2 180643Z 23007KT 03/M00 A3004 RMK A01 T00321002  RH  078%=      5-min Rain = 0
KSP2 180644Z 23008KT 03/M00 A3004 RMK A01 T00321003  RH  078%=      5-min Rain = 0
KSP2 180645Z 23008KT 03/M00 A3004 RMK A01 T00321003  RH  078%=      5-min Rain = 0
KSP2 180646Z 23008KT 03/M00 A3004 RMK A01 T00321003  RH  078%=      5-min Rain = 0
KSP2 180647Z 23007KT 03/M00 A3004 RMK A01 T00331003  RH  078%=      5-min Rain = 0
KSP2 180648Z 23007KT 03/M00 A3004 RMK A01 T00321003  RH  078%=      5-min Rain = 0
KSP2 180649Z 23007KT 03/M00 A3003 RMK A01 T00321002  RH  078%=      5-min Rain = 0
KSP2 180650Z 23007KT 03/M00 A3003 RMK A01 T00331002  RH  078%=      5-min Rain = 0
KSP2 180651Z 23007KT 03/M00 A3003 RMK A01 T00331002  RH  078%=      5-min Rain = 0
KSP2 180652Z 23007KT 03/M00 A3003 RMK A01 T00341001  RH  078%=      5-min Rain = 0
KSP2 180653Z 23007KT 04/M00 A3003 RMK A01 T00351001  RH  078%=      5-min Rain = 0
KSP2 180654Z 23007KT 04/00 A3003 RMK A01 T00360000  RH  078%=      5-min Rain = 0
KSP2 180655Z 23007KT 04/00 A3003 RMK A01 T00370001  RH  077%=      5-min Rain = 0
KSP2 180656Z 22007KT 04/00 A3003 RMK A01 T00380002  RH  077%=      5-min Rain = 0
KSP2 180657Z 22008KT 04/00 A3003 RMK A01 T00390002  RH  076%=      5-min Rain = 0
KSP2 180658Z 22008KT 04/00 A3003 RMK A01 T00410002  RH  076%=      5-min Rain = 0
KSP2 180659Z 22008KT 04/00 A3003 RMK A01 T00410002  RH  075%=      5-min Rain = 0
KSP2 180700Z 22007KT 04/00 A3003 RMK A01 T00420002  RH  075%=      5-min Rain = 0
KSP2 180701Z 23007KT 04/00 A3003 RMK A01 T00420002  RH  075%=      5-min Rain = 0
KSP2 180702Z 23006KT 04/00 A3003 RMK A01 T00420001  RH  075%=      5-min Rain = 0
KSP2 180703Z 23007KT 04/00 A3003 RMK A01 T00410001  RH  075%=      5-min Rain = 0
KSP2 180704Z 23006KT 04/00 A3003 RMK A01 T00410001  RH  075%=      5-min Rain = 0
KSP2 180705Z 23006KT 04/00 A3003 RMK A01 T00410001  RH  075%=      5-min Rain = 0
KSP2 180706Z 23007KT 04/00 A3003 RMK A01 T00410002  RH  075%=      5-min Rain = 0
KSP2 180707Z 23006KT 04/00 A3003 RMK A01 T00410001  RH  075%=      5-min Rain = 0
KSP2 180708Z 22007KT 04/00 A3003 RMK A01 T00410002  RH  075%=      5-min Rain = 0
KSP2 180709Z 23007KT 04/00 A3003 RMK A01 T00420002  RH  075%=      5-min Rain = 0
KSP2 180710Z 23008KT 04/00 A3003 RMK A01 T00430002  RH  075%=      5-min Rain = 0
KSP2 180711Z 23007KT 04/00 A3003 RMK A01 T00440003  RH  074%=      5-min Rain = 0
KSP2 180712Z 23007KT 04/00 A3003 RMK A01 T00440002  RH  074%=      5-min Rain = 0
KSP2 180713Z 23007KT 04/00 A3003 RMK A01 T00440002  RH  074%=      5-min Rain = 0
KSP2 180714Z 23007KT 04/00 A3003 RMK A01 T00440002  RH  074%=      5-min Rain = 0
KSP2 180715Z 23007KT 05/00 A3003 RMK A01 T00450003  RH  074%=      5-min Rain = 0
KSP2 180716Z 23007KT 05/00 A3003 RMK A01 T00450003  RH  074%=      5-min Rain = 0
KSP2 180717Z 22007KT 05/00 A3003 RMK A01 T00450002  RH  074%=      5-min Rain = 0
KSP2 180718Z 22007KT 05/00 A3003 RMK A01 T00450002  RH  074%=      5-min Rain = 0
KSP2 180719Z 22007KT 05/00 A3003 RMK A01 T00460003  RH  074%=      5-min Rain = 0
KSP2 180720Z 22007KT 05/00 A3003 RMK A01 T00460002  RH  074%=      5-min Rain = 0
KSP2 180721Z 22007KT 05/00 A3003 RMK A01 T00460002  RH  073%=      5-min Rain = 0
KSP2 180722Z 23006KT 05/00 A3003 RMK A01 T00460003  RH  073%=      5-min Rain = 0
KSP2 180723Z 23005KT 05/00 A3003 RMK A01 T00460003  RH  073%=      5-min Rain = 0
KSP2 180724Z 23005KT 05/00 A3003 RMK A01 T00450002  RH  073%=      5-min Rain = 0
KSP2 180725Z 23005KT 04/00 A3003 RMK A01 T00440001  RH  074%=      5-min Rain = 0
KSP2 180726Z 24005KT 04/00 A3003 RMK A01 T00440001  RH  074%=      5-min Rain = 0
KSP2 180727Z 23004KT 04/00 A3003 RMK A01 T00430001  RH  074%=      5-min Rain = 0
KSP2 180728Z 24004KT 04/00 A3003 RMK A01 T00440002  RH  074%=      5-min Rain = 0
KSP2 180729Z 24004KT 04/00 A3003 RMK A01 T00440001  RH  074%=      5-min Rain = 0
KSP2 180730Z 24004KT 04/00 A3003 RMK A01 T00440001  RH  074%=      5-min Rain = 0
KSP2 180731Z 24003KT 04/00 A3003 RMK A01 T00440001  RH  074%=      5-min Rain = 0
KSP2 180732Z 24003KT 04/00 A3003 RMK A01 T00430001  RH  074%=      5-min Rain = 0
KSP2 180733Z 24004KT 04/00 A3003 RMK A01 T00430001  RH  074%=      5-min Rain = 0
KSP2 180734Z 24004KT 04/00 A3003 RMK A01 T00430001  RH  074%=      5-min Rain = 0
KSP2 180735Z 24004KT 04/00 A3003 RMK A01 T00420000  RH  074%=      5-min Rain = 0
KSP2 180736Z 24004KT 04/00 A3003 RMK A01 T004100-0  RH  074%=      5-min Rain = 0
KSP2 180737Z 24004KT 04/M00 A3003 RMK A01 T00401001  RH  074%=      5-min Rain = 0
KSP2 180738Z 23004KT 04/M00 A3002 RMK A01 T00401001  RH  075%=      5-min Rain = 0
KSP2 180739Z 23004KT 04/00 A3002 RMK A01 T003900-0  RH  075%=      5-min Rain = 0
KSP2 180740Z 23004KT 04/00 A3002 RMK A01 T00390000  RH  076%=      5-min Rain = 0
KSP2 180741Z 23004KT 04/00 A3002 RMK A01 T003800-0  RH  076%=      5-min Rain = 0
KSP2 180742Z 23005KT 04/00 A3002 RMK A01 T003800-0  RH  076%=      5-min Rain = 0
KSP2 180743Z 23005KT 04/M00 A3002 RMK A01 T00371001  RH  076%=      5-min Rain = 0
KSP2 180744Z 23005KT 04/00 A3002 RMK A01 T003700-0  RH  077%=      5-min Rain = 0
KSP2 180745Z 23006KT 04/00 A3002 RMK A01 T00380000  RH  077%=      5-min Rain = 0
KSP2 180746Z 23006KT 04/00 A3002 RMK A01 T00370000  RH  077%=      5-min Rain = 0
KSP2 180747Z 23006KT 04/00 A3002 RMK A01 T00370000  RH  077%=      5-min Rain = 0
KSP2 180748Z 23006KT 04/00 A3002 RMK A01 T00370000  RH  077%=      5-min Rain = 0
KSP2 180749Z 24006KT 04/00 A3002 RMK A01 T00380001  RH  077%=      5-min Rain = 0
KSP2 180750Z 23006KT 04/00 A3002 RMK A01 T00370001  RH  077%=      5-min Rain = 0
KSP2 180751Z 23006KT 04/00 A3002 RMK A01 T00380001  RH  077%=      5-min Rain = 0
KSP2 180752Z 23006KT 04/00 A3002 RMK A01 T00380001  RH  077%=      5-min Rain = 0
KSP2 180753Z 23006KT 04/00 A3002 RMK A01 T00380001  RH  077%=      5-min Rain = 0
KSP2 180754Z 23006KT 04/00 A3002 RMK A01 T00390002  RH  077%=      5-min Rain = 0
KSP2 180755Z 23006KT 04/00 A3002 RMK A01 T00390002  RH  077%=      5-min Rain = 0
KSP2 180756Z 23006KT 04/00 A3002 RMK A01 T00390002  RH  077%=      5-min Rain = 0
KSP2 180757Z 23006KT 04/00 A3002 RMK A01 T00390002  RH  077%=      5-min Rain = 0
KSP2 180758Z 23005KT 04/00 A3002 RMK A01 T00390002  RH  077%=      5-min Rain = 0
KSP2 180759Z 23006KT 04/00 A3002 RMK A01 T00390002  RH  077%=      5-min Rain = 0
KSP2 180800Z 23007KT 04/00 A3002 RMK A01 T00390002  RH  077%=      5-min Rain = 0
KSP2 180801Z 24006KT 04/00 A3002 RMK A01 T00390002  RH  077%=      5-min Rain = 0
KSP2 180802Z 23007KT 04/00 A3002 RMK A01 T00400003  RH  077%=      5-min Rain = 0
KSP2 180803Z 23007KT 04/00 A3002 RMK A01 T00400003  RH  077%=      5-min Rain = 0
KSP2 180804Z 23006KT 04/00 A3002 RMK A01 T00400003  RH  077%=      5-min Rain = 0
KSP2 180805Z 23006KT 04/00 A3002 RMK A01 T00400003  RH  077%=      5-min Rain = 0
KSP2 180806Z 23006KT 04/00 A3001 RMK A01 T00410003  RH  076%=      5-min Rain = 0
KSP2 180807Z 23007KT 04/00 A3001 RMK A01 T00410003  RH  076%=      5-min Rain = 0
KSP2 180808Z 23007KT 04/00 A3001 RMK A01 T00400003  RH  076%=      5-min Rain = 0
KSP2 180809Z 23007KT 04/00 A3001 RMK A01 T00410003  RH  076%=      5-min Rain = 0
KSP2 180810Z 23007KT 04/00 A3001 RMK A01 T00410003  RH  076%=      5-min Rain = 0
KSP2 180811Z 23008KT 04/00 A3001 RMK A01 T00410003  RH  076%=      5-min Rain = 0
KSP2 180812Z 23007KT 04/00 A3001 RMK A01 T00420003  RH  076%=      5-min Rain = 0
KSP2 180813Z 23008KT 04/00 A3001 RMK A01 T00420003  RH  076%=      5-min Rain = 0
KSP2 180814Z 23007KT 04/00 A3001 RMK A01 T00420003  RH  076%=      5-min Rain = 0
KSP2 180815Z 23007KT 04/00 A3001 RMK A01 T00420003  RH  076%=      5-min Rain = 0
KSP2 180816Z 23006KT 04/00 A3001 RMK A01 T00420003  RH  076%=      5-min Rain = 0
KSP2 180817Z 24006KT 04/00 A3001 RMK A01 T00420003  RH  076%=      5-min Rain = 0
KSP2 180818Z 23006KT 04/00 A3001 RMK A01 T00420003  RH  076%=      5-min Rain = 0
KSP2 180819Z 23006KT 04/00 A3001 RMK A01 T00410002  RH  076%=      5-min Rain = 0
KSP2 180820Z 23006KT 04/00 A3001 RMK A01 T00410002  RH  076%=      5-min Rain = 0
KSP2 180821Z 22006KT 04/00 A3001 RMK A01 T00410002  RH  076%=      5-min Rain = 0
KSP2 180822Z 22006KT 04/00 A3001 RMK A01 T00410003  RH  076%=      5-min Rain = 0
KSP2 180823Z 22007KT 04/00 A3001 RMK A01 T00400002  RH  076%=      5-min Rain = 0
KSP2 180824Z 23006KT 04/00 A3001 RMK A01 T00410003  RH  076%=      5-min Rain = 0
KSP2 180825Z 22006KT 04/00 A3001 RMK A01 T00400002  RH  076%=      5-min Rain = 0
KSP2 180826Z 22006KT 04/00 A3001 RMK A01 T00390002  RH  077%=      5-min Rain = 0
KSP2 180827Z 23006KT 04/00 A3001 RMK A01 T00380002  RH  077%=      5-min Rain = 0
KSP2 180828Z 23007KT 04/00 A3001 RMK A01 T00380001  RH  077%=      5-min Rain = 0
KSP2 180829Z 23007KT 04/00 A3001 RMK A01 T00380002  RH  077%=      5-min Rain = 0
KSP2 180830Z 23007KT 04/00 A3001 RMK A01 T00380002  RH  077%=      5-min Rain = 0
KSP2 180831Z 23006KT 04/00 A3001 RMK A01 T00380002  RH  077%=      5-min Rain = 0
KSP2 180832Z 23006KT 04/00 A3001 RMK A01 T00370001  RH  077%=      5-min Rain = 0
KSP2 180833Z 23006KT 04/00 A3001 RMK A01 T00350000  RH  078%=      5-min Rain = 0
KSP2 180834Z 24006KT 04/00 A3001 RMK A01 T00350000  RH  078%=      5-min Rain = 0
KSP2 180835Z 24006KT 04/00 A3001 RMK A01 T00350001  RH  078%=      5-min Rain = 0
KSP2 180836Z 24006KT 04/00 A3001 RMK A01 T00350001  RH  079%=      5-min Rain = 0
KSP2 180837Z 24006KT 04/00 A30 RMK A01 T00350001  RH  079%=      5-min Rain = 0
KSP2 180838Z 24006KT 04/00 A30 RMK A01 T00350001  RH  079%=      5-min Rain = 0
KSP2 180839Z 24006KT 04/00 A30 RMK A01 T00350001  RH  079%=      5-min Rain = 0
KSP2 180840Z 24006KT 04/00 A30 RMK A01 T00350001  RH  078%=      5-min Rain = 0
KSP2 180841Z 24007KT 04/00 A30 RMK A01 T00350001  RH  078%=      5-min Rain = 0
KSP2 180842Z 24007KT 04/00 A30 RMK A01 T00350001  RH  078%=      5-min Rain = 0
KSP2 180843Z 24007KT 04/00 A30 RMK A01 T00350001  RH  078%=      5-min Rain = 0
KSP2 180844Z 24006KT 04/00 A30 RMK A01 T00350001  RH  078%=      5-min Rain = 0
KSP2 180845Z 25006KT 04/00 A30 RMK A01 T00350001  RH  079%=      5-min Rain = 0
KSP2 180846Z 25006KT 03/00 A30 RMK A01 T00340001  RH  079%=      5-min Rain = 0
KSP2 180847Z 25005KT 03/00 A30 RMK A01 T00340001  RH  079%=      5-min Rain = 0
KSP2 180848Z 25005KT 03/M00 A30 RMK A01 T00341001  RH  078%=      5-min Rain = 0
KSP2 180849Z 26005KT 03/M00 A30 RMK A01 T00331002  RH  078%=      5-min Rain = 0
KSP2 180850Z 25005KT 03/M00 A30 RMK A01 T00311004  RH  078%=      5-min Rain = 0
KSP2 180851Z 25005KT 03/M01 A30 RMK A01 T00291005  RH  078%=      5-min Rain = 0
KSP2 180852Z 25005KT 03/M01 A30 RMK A01 T00271006  RH  079%=      5-min Rain = 0
KSP2 180853Z 25005KT 03/M01 A30 RMK A01 T00261006  RH  080%=      5-min Rain = 0
KSP2 180854Z 25006KT 03/M01 A30 RMK A01 T00251006  RH  080%=      5-min Rain = 0
KSP2 180855Z 25005KT 02/M01 A30 RMK A01 T00241006  RH  081%=      5-min Rain = 0
KSP2 180856Z 25005KT 02/M01 A30 RMK A01 T00241006  RH  081%=      5-min Rain = 0
KSP2 180857Z 25005KT 02/M01 A30 RMK A01 T00231006  RH  081%=      5-min Rain = 0
KSP2 180858Z 25005KT 02/M01 A30 RMK A01 T00231006  RH  081%=      5-min Rain = 0
KSP2 180859Z 25005KT 02/M01 A30 RMK A01 T00221006  RH  082%=      5-min Rain = 0
KSP2 180900Z 25006KT 02/M01 A30 RMK A01 T00211007  RH  082%=      5-min Rain = 0
KSP2 180901Z 25006KT 02/M01 A30 RMK A01 T00211006  RH  082%=      5-min Rain = 0
KSP2 180902Z 25006KT 02/M01 A30 RMK A01 T00211006  RH  082%=      5-min Rain = 0
KSP2 180903Z 25006KT 02/M01 A30 RMK A01 T00211005  RH  083%=      5-min Rain = 0
KSP2 180904Z 25006KT 02/M01 A30 RMK A01 T00211005  RH  083%=      5-min Rain = 0
KSP2 180905Z 25007KT 02/M01 A30 RMK A01 T00221005  RH  083%=      5-min Rain = 0
KSP2 180906Z 25006KT 02/M01 A30 RMK A01 T00221005  RH  083%=      5-min Rain = 0
KSP2 180907Z 25006KT 02/M01 A30 RMK A01 T00221005  RH  083%=      5-min Rain = 0
KSP2 180908Z 25006KT 02/M00 A30 RMK A01 T00221004  RH  083%=      5-min Rain = 0
KSP2 180909Z 25006KT 02/M00 A30 RMK A01 T00221004  RH  083%=      5-min Rain = 0
KSP2 180910Z 25006KT 02/M00 A30 RMK A01 T00231004  RH  083%=      5-min Rain = 0
KSP2 180911Z 25006KT 02/M00 A30 RMK A01 T00231004  RH  083%=      5-min Rain = 0
KSP2 180912Z 25006KT 02/M00 A30 RMK A01 T00231003  RH  083%=      5-min Rain = 0
KSP2 180913Z 25006KT 02/M00 A30 RMK A01 T00231003  RH  083%=      5-min Rain = 0
KSP2 180914Z 25007KT 02/M00 A30 RMK A01 T00241002  RH  083%=      5-min Rain = 0
KSP2 180915Z 25007KT 02/M00 A30 RMK A01 T00241001  RH  083%=      5-min Rain = 0
KSP2 180916Z 25007KT 03/M00 A30 RMK A01 T00251001  RH  083%=      5-min Rain = 0
KSP2 180917Z 25008KT 03/00 A30 RMK A01 T00260000  RH  083%=      5-min Rain = 0
KSP2 180918Z 25007KT 03/00 A30 RMK A01 T00270000  RH  083%=      5-min Rain = 0
KSP2 180919Z 25007KT 03/00 A30 RMK A01 T002700-0  RH  082%=      5-min Rain = 0
KSP2 180920Z 25007KT 03/00 A30 RMK A01 T002800-0  RH  082%=      5-min Rain = 0
KSP2 180921Z 26007KT 03/M00 A30 RMK A01 T00281001  RH  082%=      5-min Rain = 0
KSP2 180922Z 26006KT 03/00 A30 RMK A01 T002800-0  RH  082%=      5-min Rain = 0
KSP2 180923Z 26006KT 03/M00 A30 RMK A01 T00281001  RH  082%=      5-min Rain = 0
KSP2 180924Z 25006KT 03/M00 A30 RMK A01 T00271001  RH  082%=      5-min Rain = 0
KSP2 180925Z 26006KT 03/M00 A30 RMK A01 T00271001  RH  082%=      5-min Rain = 0
KSP2 180926Z 25007KT 03/M00 A30 RMK A01 T00271001  RH  082%=      5-min Rain = 0
KSP2 180927Z 25007KT 03/M00 A2999 RMK A01 T00261002  RH  082%=      5-min Rain = 0
KSP2 180928Z 25007KT 03/M00 A2999 RMK A01 T00261001  RH  082%=      5-min Rain = 0
KSP2 180929Z 25007KT 03/M00 A2999 RMK A01 T00261002  RH  082%=      5-min Rain = 0
KSP2 180930Z 25007KT 03/M00 A2999 RMK A01 T00261002  RH  082%=      5-min Rain = 0
KSP2 180931Z 25006KT 03/M00 A2999 RMK A01 T00261001  RH  082%=      5-min Rain = 0
KSP2 180932Z 24006KT 03/M00 A2999 RMK A01 T00261001  RH  082%=      5-min Rain = 0
KSP2 180933Z 24006KT 03/M00 A2999 RMK A01 T00271001  RH  082%=      5-min Rain = 0
KSP2 180934Z 24006KT 03/M00 A2999 RMK A01 T00271001  RH  082%=      5-min Rain = 0
KSP2 180935Z 24006KT 03/M00 A2999 RMK A01 T00271001  RH  082%=      5-min Rain = 0
KSP2 180936Z 24006KT 03/M00 A2999 RMK A01 T00271001  RH  082%=      5-min Rain = 0
KSP2 180937Z 24005KT 03/M00 A2999 RMK A01 T00271001  RH  082%=      5-min Rain = 0
KSP2 180938Z 24006KT 03/M00 A2999 RMK A01 T00271002  RH  082%=      5-min Rain = 0
KSP2 180939Z 23006KT 03/M00 A2999 RMK A01 T00261002  RH  082%=      5-min Rain = 0
KSP2 180940Z 23006KT 03/M00 A2999 RMK A01 T00261002  RH  082%=      5-min Rain = 0
KSP2 180941Z 23006KT 03/M00 A2999 RMK A01 T00261002  RH  082%=      5-min Rain = 0
KSP2 180942Z 23006KT 03/M00 A2999 RMK A01 T00271001  RH  082%=      5-min Rain = 0
KSP2 180943Z 24006KT 03/M00 A2999 RMK A01 T00261002  RH  082%=      5-min Rain = 0
KSP2 180944Z 24006KT 03/M00 A2999 RMK A01 T00261002  RH  082%=      5-min Rain = 0
KSP2 180945Z 24006KT 03/M00 A2999 RMK A01 T00271001  RH  082%=      5-min Rain = 0
KSP2 180946Z 24006KT 03/M00 A2999 RMK A01 T00271001  RH  082%=      5-min Rain = 0
KSP2 180947Z 24006KT 03/M00 A2999 RMK A01 T00271001  RH  082%=      5-min Rain = 0
KSP2 180948Z 24006KT 03/00 A2999 RMK A01 T002800-0  RH  082%=      5-min Rain = 0
KSP2 180949Z 24006KT 03/00 A2999 RMK A01 T00290001  RH  082%=      5-min Rain = 0
KSP2 180950Z 24006KT 03/00 A2998 RMK A01 T00300001  RH  081%=      5-min Rain = 0
KSP2 180951Z 25006KT 03/00 A2998 RMK A01 T00310001  RH  081%=      5-min Rain = 0
KSP2 180952Z 24006KT 03/00 A2998 RMK A01 T00310001  RH  080%=      5-min Rain = 0
KSP2 180953Z 24005KT 03/00 A2998 RMK A01 T00320001  RH  080%=      5-min Rain = 0
KSP2 180954Z 24006KT 03/00 A2998 RMK A01 T00310001  RH  080%=      5-min Rain = 0
KSP2 180955Z 24005KT 03/00 A2998 RMK A01 T00320001  RH  080%=      5-min Rain = 0
KSP2 180956Z 24006KT 03/00 A2998 RMK A01 T00310000  RH  080%=      5-min Rain = 0
KSP2 180957Z 25005KT 03/00 A2998 RMK A01 T00310001  RH  081%=      5-min Rain = 0
KSP2 180958Z 25006KT 03/00 A2998 RMK A01 T00310001  RH  080%=      5-min Rain = 0
KSP2 180959Z 25006KT 03/00 A2998 RMK A01 T00310001  RH  080%=      5-min Rain = 0
KSP2 181000Z 25006KT 03/00 A2998 RMK A01 T00310000  RH  080%=      5-min Rain = 0
KSP2 181001Z 25006KT 03/00 A2998 RMK A01 T00310000  RH  080%=      5-min Rain = 0
KSP2 181002Z 25006KT 03/00 A2998 RMK A01 T00310000  RH  080%=      5-min Rain = 0
KSP2 181003Z 25006KT 03/00 A2998 RMK A01 T003100-0  RH  080%=      5-min Rain = 0
KSP2 181004Z 25007KT 03/00 A2998 RMK A01 T003100-0  RH  080%=      5-min Rain = 0
KSP2 181005Z 24007KT 03/00 A2998 RMK A01 T00310000  RH  080%=      5-min Rain = 0
KSP2 181006Z 24006KT 03/M00 A2998 RMK A01 T00301001  RH  080%=      5-min Rain = 0
KSP2 181007Z 24007KT 03/M00 A2998 RMK A01 T00301001  RH  080%=      5-min Rain = 0
KSP2 181008Z 25006KT 03/M00 A2998 RMK A01 T00291002  RH  081%=      5-min Rain = 0
KSP2 181009Z 24007KT 03/M00 A2998 RMK A01 T00281001  RH  081%=      5-min Rain = 0
KSP2 181010Z 25007KT 03/M00 A2998 RMK A01 T00281001  RH  081%=      5-min Rain = 0
KSP2 181011Z 24007KT 03/M00 A2998 RMK A01 T00281001  RH  081%=      5-min Rain = 0
KSP2 181012Z 24007KT 03/M00 A2998 RMK A01 T00281001  RH  081%=      5-min Rain = 0
KSP2 181013Z 24007KT 03/M00 A2997 RMK A01 T00281001  RH  081%=      5-min Rain = 0
KSP2 181014Z 24007KT 03/M00 A2997 RMK A01 T00281001  RH  081%=      5-min Rain = 0
KSP2 181015Z 24006KT 03/M00 A2997 RMK A01 T00291001  RH  081%=      5-min Rain = 0
KSP2 181016Z 24006KT 03/M00 A2997 RMK A01 T00281001  RH  081%=      5-min Rain = 0
KSP2 181017Z 24006KT 03/M00 A2997 RMK A01 T00271002  RH  081%=      5-min Rain = 0
KSP2 181018Z 24006KT 03/M00 A2997 RMK A01 T00271001  RH  081%=      5-min Rain = 0
KSP2 181019Z 24008KT 03/M00 A2997 RMK A01 T00281001  RH  082%=      5-min Rain = 0
KSP2 181020Z 24007KT 03/00 A2997 RMK A01 T002800-0  RH  082%=      5-min Rain = 0
KSP2 181021Z 24007KT 03/00 A2997 RMK A01 T002900-0  RH  081%=      5-min Rain = 0
KSP2 181022Z 24007KT 03/00 A2997 RMK A01 T00290000  RH  081%=      5-min Rain = 0
KSP2 181023Z 24008KT 03/00 A2997 RMK A01 T003000-0  RH  081%=      5-min Rain = 0
KSP2 181024Z 24007KT 03/00 A2997 RMK A01 T00300000  RH  081%=      5-min Rain = 0
KSP2 181025Z 24007KT 03/00 A2997 RMK A01 T003000-0  RH  081%=      5-min Rain = 0
KSP2 181026Z 24008KT 03/00 A2997 RMK A01 T003000-0  RH  081%=      5-min Rain = 0
KSP2 181027Z 24009KT 03/00 A2997 RMK A01 T00310001  RH  081%=      5-min Rain = 0
KSP2 181028Z 24008KT 03/00 A2997 RMK A01 T00320001  RH  080%=      5-min Rain = 0
KSP2 181029Z 24008KT 03/00 A2997 RMK A01 T00320001  RH  080%=      5-min Rain = 0
KSP2 181030Z 24008KT 03/00 A2997 RMK A01 T00320000  RH  080%=      5-min Rain = 0
KSP2 181031Z 24007KT 03/00 A2997 RMK A01 T003100-0  RH  080%=      5-min Rain = 0
KSP2 181032Z 24007KT 03/00 A2997 RMK A01 T003100-0  RH  080%=      5-min Rain = 0
KSP2 181033Z 24007KT 03/M00 A2997 RMK A01 T00311001  RH  080%=      5-min Rain = 0
KSP2 181034Z 24006KT 03/00 A2997 RMK A01 T003100-0  RH  080%=      5-min Rain = 0
KSP2 181035Z 24007KT 03/M00 A2997 RMK A01 T00301001  RH  080%=      5-min Rain = 0
KSP2 181036Z 24007KT 03/00 A2997 RMK A01 T003000-0  RH  080%=      5-min Rain = 0
KSP2 181037Z 24006KT 03/00 A2997 RMK A01 T00310000  RH  080%=      5-min Rain = 0
KSP2 181038Z 24007KT 03/00 A2997 RMK A01 T003100-0  RH  080%=      5-min Rain = 0
KSP2 181039Z 24006KT 03/00 A2997 RMK A01 T003000-0  RH  080%=      5-min Rain = 0
KSP2 181040Z 23007KT 03/00 A2997 RMK A01 T003000-0  RH  080%=      5-min Rain = 0
KSP2 181041Z 23006KT 03/M00 A2997 RMK A01 T00301001  RH  080%=      5-min Rain = 0
KSP2 181042Z 24006KT 03/M00 A2997 RMK A01 T00291001  RH  080%=      5-min Rain = 0
KSP2 181043Z 24006KT 03/M00 A2997 RMK A01 T00291001  RH  080%=      5-min Rain = 0
KSP2 181044Z 24006KT 03/M00 A2997 RMK A01 T00281002  RH  081%=      5-min Rain = 0
KSP2 181045Z 24007KT 03/M00 A2997 RMK A01 T00271002  RH  081%=      5-min Rain = 0
KSP2 181046Z 24006KT 03/M00 A2997 RMK A01 T00271002  RH  081%=      5-min Rain = 0
KSP2 181047Z 24006KT 03/M00 A2997 RMK A01 T00261003  RH  081%=      5-min Rain = 0
KSP2 181048Z 24007KT 03/M00 A2997 RMK A01 T00261002  RH  082%=      5-min Rain = 0
KSP2 181049Z 24006KT 03/M00 A2997 RMK A01 T00251002  RH  082%=      5-min Rain = 0
KSP2 181050Z 24006KT 03/M00 A2997 RMK A01 T00251002  RH  082%=      5-min Rain = 0
KSP2 181051Z 24007KT 03/M00 A2997 RMK A01 T00251002  RH  082%=      5-min Rain = 0
KSP2 181052Z 24007KT 03/M00 A2997 RMK A01 T00251002  RH  082%=      5-min Rain = 0
KSP2 181053Z 24007KT 03/M00 A2997 RMK A01 T00251002  RH  082%=      5-min Rain = 0
KSP2 181054Z 25007KT 03/M00 A2997 RMK A01 T00251002  RH  082%=      5-min Rain = 0
KSP2 181055Z 25007KT 03/M00 A2997 RMK A01 T00251002  RH  082%=      5-min Rain = 0
KSP2 181056Z 25007KT 03/M00 A2997 RMK A01 T00251002  RH  082%=      5-min Rain = 0
KSP2 181057Z 25007KT 03/M00 A2997 RMK A01 T00261002  RH  082%=      5-min Rain = 0
KSP2 181058Z 25007KT 03/M00 A2997 RMK A01 T00261002  RH  082%=      5-min Rain = 0
KSP2 181059Z 25007KT 03/M00 A2997 RMK A01 T00251002  RH  082%=      5-min Rain = 0
KSP2 181100Z 25007KT 03/M00 A2997 RMK A01 T00261002  RH  082%=      5-min Rain = 0
KSP2 181101Z 25006KT 03/M00 A2997 RMK A01 T00261002  RH  082%=      5-min Rain = 0
KSP2 181102Z 25006KT 03/M00 A2997 RMK A01 T00261002  RH  082%=      5-min Rain = 0
KSP2 181103Z 25006KT 03/M00 A2997 RMK A01 T00261003  RH  082%=      5-min Rain = 0
KSP2 181104Z 25006KT 03/M00 A2997 RMK A01 T00251003  RH  082%=      5-min Rain = 0
KSP2 181105Z 25006KT 03/M00 A2997 RMK A01 T00251003  RH  082%=      5-min Rain = 0
KSP2 181106Z 25006KT 03/M00 A2997 RMK A01 T00251003  RH  082%=      5-min Rain = 0
KSP2 181107Z 25006KT 02/M00 A2997 RMK A01 T00241003  RH  082%=      5-min Rain = 0
KSP2 181108Z 25006KT 02/M00 A2997 RMK A01 T00241003  RH  082%=      5-min Rain = 0
KSP2 181109Z 25006KT 02/M00 A2997 RMK A01 T00241003  RH  082%=      5-min Rain = 0
KSP2 181110Z 25006KT 02/M00 A2997 RMK A01 T00241003  RH  082%=      5-min Rain = 0
KSP2 181111Z 25006KT 02/M00 A2997 RMK A01 T00241003  RH  082%=      5-min Rain = 0
KSP2 181112Z 25006KT 02/M00 A2997 RMK A01 T00241003  RH  082%=      5-min Rain = 0
KSP2 181113Z 25006KT 02/M00 A2997 RMK A01 T00241003  RH  082%=      5-min Rain = 0
KSP2 181114Z 25006KT 02/M00 A2997 RMK A01 T00241003  RH  083%=      5-min Rain = 0
KSP2 181115Z 25006KT 02/M00 A2997 RMK A01 T00241003  RH  082%=      5-min Rain = 0
KSP2 181116Z 25006KT 02/M00 A2997 RMK A01 T00241003  RH  082%=      5-min Rain = 0
KSP2 181117Z 25006KT 02/M00 A2997 RMK A01 T00241003  RH  082%=      5-min Rain = 0
KSP2 181118Z 25005KT 02/M00 A2997 RMK A01 T00241004  RH  082%=      5-min Rain = 0
KSP2 181119Z 25005KT 02/M00 A2997 RMK A01 T00231004  RH  082%=      5-min Rain = 0
KSP2 181120Z 25006KT 02/M00 A2997 RMK A01 T00231004  RH  082%=      5-min Rain = 0
KSP2 181121Z 25005KT 02/M00 A2997 RMK A01 T00231003  RH  083%=      5-min Rain = 0
KSP2 181122Z 26005KT 02/M00 A2997 RMK A01 T00221004  RH  083%=      5-min Rain = 0
KSP2 181123Z 26005KT 02/M00 A2998 RMK A01 T00221004  RH  083%=      5-min Rain = 0
KSP2 181124Z 26005KT 02/M00 A2998 RMK A01 T00231003  RH  083%=      5-min Rain = 0
KSP2 181125Z 26005KT 02/M00 A2998 RMK A01 T00241002  RH  083%=      5-min Rain = 0
KSP2 181126Z 26006KT 02/M00 A2998 RMK A01 T00241002  RH  083%=      5-min Rain = 0
KSP2 181127Z 26006KT 03/M00 A2998 RMK A01 T00251002  RH  082%=      5-min Rain = 0
KSP2 181128Z 26007KT 03/M00 A2998 RMK A01 T00261001  RH  082%=      5-min Rain = 0
KSP2 181129Z 26007KT 03/M00 A2998 RMK A01 T00271001  RH  082%=      5-min Rain = 0
KSP2 181130Z 26007KT 03/M00 A2997 RMK A01 T00271001  RH  082%=      5-min Rain = 0
KSP2 181131Z 26007KT 03/00 A2997 RMK A01 T002800-0  RH  082%=      5-min Rain = 0
KSP2 181132Z 26007KT 03/00 A2997 RMK A01 T002800-0  RH  081%=      5-min Rain = 0
KSP2 181133Z 25008KT 03/00 A2997 RMK A01 T00290000  RH  081%=      5-min Rain = 0
KSP2 181134Z 25008KT 03/00 A2997 RMK A01 T00290000  RH  081%=      5-min Rain = 0
KSP2 181135Z 25008KT 03/00 A2997 RMK A01 T003000-0  RH  081%=      5-min Rain = 0
KSP2 181136Z 25007KT 03/00 A2997 RMK A01 T003000-0  RH  081%=      5-min Rain = 0
KSP2 181137Z 25008KT 03/00 A2997 RMK A01 T003000-0  RH  081%=      5-min Rain = 0
KSP2 181138Z 25008KT 03/00 A2997 RMK A01 T003000-0  RH  081%=      5-min Rain = 0
KSP2 181139Z 25008KT 03/00 A2997 RMK A01 T00310000  RH  080%=      5-min Rain = 0
KSP2 181140Z 25009KT 03/00 A2997 RMK A01 T00310000  RH  080%=      5-min Rain = 0
KSP2 181141Z 25008KT 03/00 A2997 RMK A01 T00320000  RH  080%=      5-min Rain = 0
KSP2 181142Z 25008KT 03/00 A2997 RMK A01 T00320000  RH  079%=      5-min Rain = 0
KSP2 181143Z 25008KT 03/00 A2997 RMK A01 T00320000  RH  079%=      5-min Rain = 0
KSP2 181144Z 25008KT 03/00 A2997 RMK A01 T003300-0  RH  079%=      5-min Rain = 0
KSP2 181145Z 25009KT 03/00 A2996 RMK A01 T00330000  RH  079%=      5-min Rain = 0
KSP2 181146Z 25008KT 03/00 A2996 RMK A01 T003300-0  RH  079%=      5-min Rain = 0
KSP2 181147Z 24008KT 03/00 A2996 RMK A01 T003400-0  RH  078%=      5-min Rain = 0
KSP2 181148Z 24009KT 03/M00 A2996 RMK A01 T00341001  RH  078%=      5-min Rain = 0
KSP2 181149Z 24008KT 03/M00 A2996 RMK A01 T00341001  RH  078%=      5-min Rain = 0
KSP2 181150Z 24008KT 03/M00 A2996 RMK A01 T00341001  RH  078%=      5-min Rain = 0
KSP2 181151Z 24009KT 03/M00 A2996 RMK A01 T00331001  RH  078%=      5-min Rain = 0
KSP2 181152Z 25008KT 03/M00 A2996 RMK A01 T00331001  RH  078%=      5-min Rain = 0
KSP2 181153Z 25008KT 03/M00 A2996 RMK A01 T00331001  RH  078%=      5-min Rain = 0
KSP2 181154Z 25008KT 03/M00 A2996 RMK A01 T00341001  RH  078%=      5-min Rain = 0
KSP2 181155Z 25008KT 03/M00 A2996 RMK A01 T00341001  RH  078%=      5-min Rain = 0
KSP2 181156Z 25008KT 03/M00 A2996 RMK A01 T00341001  RH  078%=      5-min Rain = 0
KSP2 181157Z 25009KT 03/M00 A2996 RMK A01 T00341001  RH  078%=      5-min Rain = 0
KSP2 181158Z 25009KT 03/M00 A2996 RMK A01 T00341001  RH  077%=      5-min Rain = 0
KSP2 181159Z 25009KT 03/M00 A2996 RMK A01 T00341002  RH  077%=      5-min Rain = 0
KSP2 181200Z 25009KT 03/M00 A2996 RMK A01 T00341002  RH  077%=      5-min Rain = 0
KSP2 181201Z 25009KT 03/M00 A2996 RMK A01 T00341002  RH  077%=      5-min Rain = 0
KSP2 181202Z 25008KT 04/M00 A2996 RMK A01 T00351001  RH  077%=      5-min Rain = 0
KSP2 181203Z 25009KT 04/M00 A2996 RMK A01 T00351002  RH  077%=      5-min Rain = 0
KSP2 181204Z 24008KT 04/M00 A2996 RMK A01 T00351002  RH  077%=      5-min Rain = 0
KSP2 181205Z 25008KT 04/M00 A2996 RMK A01 T00351002  RH  077%=      5-min Rain = 0
KSP2 181206Z 25009KT 04/M00 A2996 RMK A01 T00351002  RH  077%=      5-min Rain = 0
KSP2 181207Z 25009KT 04/M00 A2996 RMK A01 T00351002  RH  077%=      5-min Rain = 0
KSP2 181208Z 25009KT 03/M00 A2997 RMK A01 T00341002  RH  077%=      5-min Rain = 0
KSP2 181209Z 25008KT 03/M00 A2997 RMK A01 T00341002  RH  077%=      5-min Rain = 0
KSP2 181210Z 25007KT 03/M00 A2997 RMK A01 T00341002  RH  077%=      5-min Rain = 0
KSP2 181211Z 25007KT 03/M00 A2997 RMK A01 T00341002  RH  077%=      5-min Rain = 0
KSP2 181212Z 25007KT 03/M00 A2997 RMK A01 T00341002  RH  077%=      5-min Rain = 0
KSP2 181213Z 25006KT 03/M00 A2997 RMK A01 T00331002  RH  077%=      5-min Rain = 0
KSP2 181214Z 26006KT 03/M00 A2997 RMK A01 T00331002  RH  078%=      5-min Rain = 0
KSP2 181215Z 26006KT 03/M00 A2997 RMK A01 T00331002  RH  078%=      5-min Rain = 0
KSP2 181216Z 26006KT 03/M00 A2997 RMK A01 T00321002  RH  078%=      5-min Rain = 0
KSP2 181217Z 26006KT 03/M00 A2997 RMK A01 T00321002  RH  078%=      5-min Rain = 0
KSP2 181218Z 26006KT 03/M00 A2997 RMK A01 T00321002  RH  078%=      5-min Rain = 0
KSP2 181219Z 26007KT 03/M00 A2997 RMK A01 T00321003  RH  078%=      5-min Rain = 0
KSP2 181220Z 26008KT 03/M00 A2997 RMK A01 T00311003  RH  078%=      5-min Rain = 0
KSP2 181221Z 26008KT 03/M00 A2996 RMK A01 T00311004  RH  078%=      5-min Rain = 0
KSP2 181222Z 25008KT 03/M00 A2996 RMK A01 T00301003  RH  078%=      5-min Rain = 0
KSP2 181223Z 25008KT 03/M00 A2996 RMK A01 T00311003  RH  078%=      5-min Rain = 0
KSP2 181224Z 25008KT 03/M00 A2996 RMK A01 T00311003  RH  078%=      5-min Rain = 0
KSP2 181225Z 25008KT 03/M00 A2996 RMK A01 T00311003  RH  078%=      5-min Rain = 0
KSP2 181226Z 26008KT 03/M00 A2996 RMK A01 T00321003  RH  078%=      5-min Rain = 0
KSP2 181227Z 25008KT 03/M00 A2996 RMK A01 T00321003  RH  078%=      5-min Rain = 0
KSP2 181228Z 25008KT 03/M00 A2996 RMK A01 T00321003  RH  078%=      5-min Rain = 0
KSP2 181229Z 26009KT 03/M00 A2996 RMK A01 T00321003  RH  078%=      5-min Rain = 0
KSP2 181230Z 26009KT 03/M00 A2996 RMK A01 T00331002  RH  078%=      5-min Rain = 0
KSP2 181231Z 26009KT 04/M00 A2997 RMK A01 T00351001  RH  077%=      5-min Rain = 0
KSP2 181232Z 26008KT 04/M00 A2997 RMK A01 T00361001  RH  077%=      5-min Rain = 0
KSP2 181233Z 26009KT 04/M00 A2997 RMK A01 T00361001  RH  076%=      5-min Rain = 0
KSP2 181234Z 26008KT 04/M00 A2997 RMK A01 T00361002  RH  076%=      5-min Rain = 0
KSP2 181235Z 26009KT 04/M00 A2997 RMK A01 T00361002  RH  076%=      5-min Rain = 0
KSP2 181236Z 27008KT 04/M00 A2997 RMK A01 T00361002  RH  076%=      5-min Rain = 0
KSP2 181237Z 27008KT 04/M00 A2997 RMK A01 T00351002  RH  076%=      5-min Rain = 0
KSP2 181238Z 27008KT 04/M00 A2997 RMK A01 T00361001  RH  077%=      5-min Rain = 0
KSP2 181239Z 27008KT 04/M00 A2997 RMK A01 T00351001  RH  077%=      5-min Rain = 0
KSP2 181240Z 27009KT 04/M00 A2997 RMK A01 T00361001  RH  077%=      5-min Rain = 0
KSP2 181241Z 27009KT 04/M00 A2997 RMK A01 T00361002  RH  077%=      5-min Rain = 0
KSP2 181242Z 27009KT 04/M00 A2997 RMK A01 T00361001  RH  077%=      5-min Rain = 0
KSP2 181243Z 27008KT 04/M00 A2997 RMK A01 T00361002  RH  077%=      5-min Rain = 0
KSP2 181244Z 27008KT 04/M00 A2997 RMK A01 T00351002  RH  077%=      5-min Rain = 0
KSP2 181245Z 27008KT 03/M00 A2997 RMK A01 T00341002  RH  077%=      5-min Rain = 0
KSP2 181246Z 26008KT 03/M00 A2997 RMK A01 T00331003  RH  077%=      5-min Rain = 0
KSP2 181247Z 26008KT 03/M00 A2997 RMK A01 T00321003  RH  077%=      5-min Rain = 0
KSP2 181248Z 26008KT 03/M00 A2997 RMK A01 T00311004  RH  078%=      5-min Rain = 0
KSP2 181249Z 27007KT 03/M00 A2997 RMK A01 T00311004  RH  078%=      5-min Rain = 0
KSP2 181250Z 27007KT 03/M01 A2997 RMK A01 T00301005  RH  078%=      5-min Rain = 0
KSP2 181251Z 27006KT 03/M01 A2997 RMK A01 T00291006  RH  078%=      5-min Rain = 0
KSP2 181252Z 27006KT 03/M01 A2997 RMK A01 T00271007  RH  078%=      5-min Rain = 0
KSP2 181253Z 27007KT 03/M01 A2997 RMK A01 T00251008  RH  079%=      5-min Rain = 0
KSP2 181254Z 27007KT 02/M01 A2997 RMK A01 T00231010  RH  079%=      5-min Rain = 0
KSP2 181255Z 27007KT 02/M01 A2997 RMK A01 T00211010  RH  080%=      5-min Rain = 0
KSP2 181256Z 27007KT 02/M01 A2997 RMK A01 T00201011  RH  080%=      5-min Rain = 0
KSP2 181257Z 27007KT 02/M01 A2998 RMK A01 T00181011  RH  081%=      5-min Rain = 0
KSP2 181258Z 27007KT 02/M01 A2998 RMK A01 T00171012  RH  081%=      5-min Rain = 0
KSP2 181259Z 27007KT 02/M01 A2998 RMK A01 T00161012  RH  082%=      5-min Rain = 0
KSP2 181300Z 27007KT 02/M01 A2998 RMK A01 T00161012  RH  082%=      5-min Rain = 0
KSP2 181301Z 27007KT 02/M01 A2997 RMK A01 T00151012  RH  082%=      5-min Rain = 0
KSP2 181302Z 26007KT 02/M01 A2997 RMK A01 T00151012  RH  083%=      5-min Rain = 0
KSP2 181303Z 26007KT 02/M01 A2997 RMK A01 T00151011  RH  083%=      5-min Rain = 0
KSP2 181304Z 26007KT 02/M01 A2997 RMK A01 T00151011  RH  083%=      5-min Rain = 0
KSP2 181305Z 26007KT 02/M01 A2997 RMK A01 T00151011  RH  083%=      5-min Rain = 0
KSP2 181306Z 26006KT 02/M01 A2997 RMK A01 T00151011  RH  083%=      5-min Rain = 0
KSP2 181307Z 26007KT 02/M01 A2997 RMK A01 T00151011  RH  083%=      5-min Rain = 0
KSP2 181308Z 26007KT 02/M01 A2998 RMK A01 T00151011  RH  083%=      5-min Rain = 0
KSP2 181309Z 26006KT 02/M01 A2998 RMK A01 T00161010  RH  083%=      5-min Rain = 0
KSP2 181310Z 25006KT 02/M01 A2998 RMK A01 T00161010  RH  083%=      5-min Rain = 0
KSP2 181311Z 26007KT 02/M01 A2998 RMK A01 T00171009  RH  083%=      5-min Rain = 0
KSP2 181312Z 26006KT 02/M01 A2998 RMK A01 T00181008  RH  083%=      5-min Rain = 0
KSP2 181313Z 26006KT 02/M01 A2998 RMK A01 T00191007  RH  083%=      5-min Rain = 0
KSP2 181314Z 26006KT 02/M01 A2998 RMK A01 T00201007  RH  083%=      5-min Rain = 0
KSP2 181315Z 26006KT 02/M01 A2998 RMK A01 T00211007  RH  082%=      5-min Rain = 0
KSP2 181316Z 26007KT 02/M01 A2998 RMK A01 T00221006  RH  082%=      5-min Rain = 0
KSP2 181317Z 26007KT 02/M01 A2998 RMK A01 T00231005  RH  082%=      5-min Rain = 0
KSP2 181318Z 26007KT 03/M00 A2998 RMK A01 T00251004  RH  081%=      5-min Rain = 0
KSP2 181319Z 26007KT 03/M00 A2998 RMK A01 T00261004  RH  080%=      5-min Rain = 0
KSP2 181320Z 27006KT 03/M00 A2998 RMK A01 T00271004  RH  080%=      5-min Rain = 0
KSP2 181321Z 26006KT 03/M00 A2998 RMK A01 T00271004  RH  080%=      5-min Rain = 0
KSP2 181322Z 26007KT 03/M00 A2998 RMK A01 T00281004  RH  079%=      5-min Rain = 0
KSP2 181323Z 26007KT 03/M00 A2998 RMK A01 T00281004  RH  079%=      5-min Rain = 0
KSP2 181324Z 26007KT 03/M00 A2998 RMK A01 T00291004  RH  079%=      5-min Rain = 0
KSP2 181325Z 26007KT 03/M00 A2998 RMK A01 T00301003  RH  079%=      5-min Rain = 0
KSP2 181326Z 26007KT 03/M00 A2998 RMK A01 T00301004  RH  079%=      5-min Rain = 0
KSP2 181327Z 26007KT 03/M00 A2997 RMK A01 T00301003  RH  078%=      5-min Rain = 0
KSP2 181328Z 26007KT 03/M00 A2997 RMK A01 T00311003  RH  078%=      5-min Rain = 0
KSP2 181329Z 26008KT 03/M00 A2997 RMK A01 T00311003  RH  078%=      5-min Rain = 0
KSP2 181330Z 25008KT 03/M00 A2997 RMK A01 T00311003  RH  078%=      5-min Rain = 0
KSP2 181331Z 25007KT 03/M00 A2997 RMK A01 T00321003  RH  078%=      5-min Rain = 0
KSP2 181332Z 25007KT 03/M00 A2997 RMK A01 T00321004  RH  078%=      5-min Rain = 0
KSP2 181333Z 26007KT 03/M00 A2997 RMK A01 T00321004  RH  077%=      5-min Rain = 0
KSP2 181334Z 26008KT 03/M00 A2997 RMK A01 T00321004  RH  077%=      5-min Rain = 0
KSP2 181335Z 26008KT 03/M00 A2997 RMK A01 T00331004  RH  077%=      5-min Rain = 0
KSP2 181336Z 26008KT 03/M00 A2997 RMK A01 T00331004  RH  077%=      5-min Rain = 0
KSP2 181337Z 26008KT 03/M00 A2997 RMK A01 T00331003  RH  077%=      5-min Rain = 0
KSP2 181338Z 26007KT 03/M00 A2997 RMK A01 T00341003  RH  077%=      5-min Rain = 0
KSP2 181339Z 26008KT 03/M00 A2997 RMK A01 T00341003  RH  077%=      5-min Rain = 0
KSP2 181340Z 26008KT 03/M00 A2997 RMK A01 T00341003  RH  076%=      5-min Rain = 0
KSP2 181341Z 26008KT 04/M00 A2997 RMK A01 T00351003  RH  076%=      5-min Rain = 0
KSP2 181342Z 26008KT 04/M00 A2998 RMK A01 T00351003  RH  076%=      5-min Rain = 0
KSP2 181343Z 26008KT 04/M00 A2998 RMK A01 T00361003  RH  076%=      5-min Rain = 0
KSP2 181344Z 26008KT 04/M00 A2998 RMK A01 T00361003  RH  076%=      5-min Rain = 0
KSP2 181345Z 26009KT 04/M00 A2998 RMK A01 T00371002  RH  076%=      5-min Rain = 0
KSP2 181346Z 27008KT 04/M00 A2998 RMK A01 T00371002  RH  075%=      5-min Rain = 0
KSP2 181347Z 26009KT 04/M00 A2998 RMK A01 T00381002  RH  075%=      5-min Rain = 0
KSP2 181348Z 27008KT 04/M00 A2998 RMK A01 T00391001  RH  075%=      5-min Rain = 0
KSP2 181349Z 27009KT 04/M00 A2998 RMK A01 T00391001  RH  075%=      5-min Rain = 0
KSP2 181350Z 26008KT 04/M00 A2998 RMK A01 T00401001  RH  075%=      5-min Rain = 0
KSP2 181351Z 26009KT 04/M00 A2998 RMK A01 T00401001  RH  074%=      5-min Rain = 0
KSP2 181352Z 26008KT 04/M00 A2998 RMK A01 T00411001  RH  074%=      5-min Rain = 0
KSP2 181353Z 26009KT 04/M00 A2998 RMK A01 T00421001  RH  074%=      5-min Rain = 0
KSP2 181354Z 26009KT 04/M00 A2998 RMK A01 T00431001  RH  073%=      5-min Rain = 0
KSP2 181355Z 26009KT 04/00 A2998 RMK A01 T004400-0  RH  073%=      5-min Rain = 0
KSP2 181356Z 26009KT 04/00 A2998 RMK A01 T004400-0  RH  073%=      5-min Rain = 0
KSP2 181357Z 27008KT 05/00 A2998 RMK A01 T00450000  RH  073%=      5-min Rain = 0
KSP2 181358Z 26008KT 05/00 A2999 RMK A01 T00460000  RH  072%=      5-min Rain = 0
KSP2 181359Z 27009KT 05/00 A2999 RMK A01 T00460000  RH  072%=      5-min Rain = 0
KSP2 181400Z 26008KT 05/00 A2999 RMK A01 T00470000  RH  072%=      5-min Rain = 0
KSP2 181401Z 27008KT 05/00 A2999 RMK A01 T00470000  RH  072%=      5-min Rain = 0
KSP2 181402Z 26008KT 05/00 A2999 RMK A01 T00470000  RH  071%=      5-min Rain = 0
KSP2 181403Z 27009KT 05/00 A2999 RMK A01 T00480001  RH  071%=      5-min Rain = 0
KSP2 181404Z 26008KT 05/00 A2999 RMK A01 T00490001  RH  071%=      5-min Rain = 0
KSP2 181405Z 26008KT 05/00 A2999 RMK A01 T00490001  RH  071%=      5-min Rain = 0
KSP2 181406Z 26009KT 05/00 A2999 RMK A01 T00500001  RH  071%=      5-min Rain = 0
KSP2 181407Z 26008KT 05/00 A2999 RMK A01 T00510002  RH  071%=      5-min Rain = 0
KSP2 181408Z 26009KT 05/00 A2999 RMK A01 T00510002  RH  071%=      5-min Rain = 0
KSP2 181409Z 26008KT 05/00 A2999 RMK A01 T00520003  RH  070%=      5-min Rain = 0
KSP2 181410Z 26008KT 05/00 A2999 RMK A01 T00530003  RH  070%=      5-min Rain = 0
KSP2 181411Z 26009KT 05/00 A2999 RMK A01 T00530002  RH  070%=      5-min Rain = 0
KSP2 181412Z 26007KT 05/00 A2999 RMK A01 T00540003  RH  069%=      5-min Rain = 0
KSP2 181413Z 26007KT 06/00 A2999 RMK A01 T00550003  RH  070%=      5-min Rain = 0
KSP2 181414Z 26007KT 06/00 A2999 RMK A01 T00550004  RH  069%=      5-min Rain = 0
KSP2 181415Z 26008KT 06/00 A2998 RMK A01 T00560004  RH  069%=      5-min Rain = 0
KSP2 181416Z 26008KT 06/00 A2998 RMK A01 T00570004  RH  069%=      5-min Rain = 0
KSP2 181417Z 26009KT 06/01 A2998 RMK A01 T00580005  RH  068%=      5-min Rain = 0
KSP2 181418Z 26007KT 06/00 A2998 RMK A01 T00590004  RH  068%=      5-min Rain = 0
KSP2 181419Z 25009KT 06/01 A2998 RMK A01 T00600005  RH  068%=      5-min Rain = 0
KSP2 181420Z 26008KT 06/01 A2998 RMK A01 T00610005  RH  067%=      5-min Rain = 0
KSP2 181421Z 25008KT 06/01 A2998 RMK A01 T00620006  RH  067%=      5-min Rain = 0
KSP2 181422Z 25007KT 06/01 A2998 RMK A01 T00630006  RH  067%=      5-min Rain = 0
KSP2 181423Z 25008KT 06/01 A2998 RMK A01 T00640007  RH  067%=      5-min Rain = 0
KSP2 181424Z 26008KT 07/01 A2998 RMK A01 T00650007  RH  066%=      5-min Rain = 0
KSP2 181425Z 25008KT 07/01 A2998 RMK A01 T00660007  RH  066%=      5-min Rain = 0
KSP2 181426Z 25008KT 07/01 A2998 RMK A01 T00670008  RH  066%=      5-min Rain = 0
KSP2 181427Z 25009KT 07/01 A2998 RMK A01 T00680008  RH  065%=      5-min Rain = 0
KSP2 181428Z 26007KT 07/01 A2998 RMK A01 T00690008  RH  065%=      5-min Rain = 0
KSP2 181429Z 26007KT 07/01 A2998 RMK A01 T00690008  RH  065%=      5-min Rain = 0
KSP2 181430Z 26007KT 07/01 A2998 RMK A01 T00700009  RH  065%=      5-min Rain = 0
KSP2 181431Z 26006KT 07/01 A2998 RMK A01 T00710009  RH  065%=      5-min Rain = 0
KSP2 181432Z 26007KT 07/01 A2998 RMK A01 T00720010  RH  065%=      5-min Rain = 0
KSP2 181433Z 26007KT 07/01 A2998 RMK A01 T00720009  RH  064%=      5-min Rain = 0
KSP2 181434Z 26008KT 07/01 A2997 RMK A01 T00730009  RH  064%=      5-min Rain = 0
KSP2 181435Z 26007KT 07/01 A2997 RMK A01 T00730009  RH  064%=      5-min Rain = 0
KSP2 181436Z 25007KT 07/01 A2997 RMK A01 T00740010  RH  064%=      5-min Rain = 0
KSP2 181437Z 25008KT 08/01 A2997 RMK A01 T00760010  RH  063%=      5-min Rain = 0
KSP2 181438Z 25008KT 08/01 A2997 RMK A01 T00780012  RH  063%=      5-min Rain = 0
KSP2 181439Z 25007KT 08/01 A2997 RMK A01 T00800013  RH  063%=      5-min Rain = 0
KSP2 181440Z 25007KT 08/01 A2997 RMK A01 T00820013  RH  062%=      5-min Rain = 0
KSP2 181441Z 25008KT 09/01 A2997 RMK A01 T00850014  RH  061%=      5-min Rain = 0
KSP2 181442Z 26008KT 09/01 A2997 RMK A01 T00870014  RH  060%=      5-min Rain = 0
KSP2 181443Z 26008KT 09/01 A2997 RMK A01 T00890013  RH  059%=      5-min Rain = 0
KSP2 181444Z 25009KT 09/01 A2997 RMK A01 T00890013  RH  059%=      5-min Rain = 0
KSP2 181445Z 25009KT 09/01 A2997 RMK A01 T00910014  RH  058%=      5-min Rain = 0
KSP2 181446Z 25010KT 09/01 A2997 RMK A01 T00930013  RH  057%=      5-min Rain = 0
KSP2 181447Z 24009KT 09/01 A2997 RMK A01 T00940012  RH  057%=      5-min Rain = 0
KSP2 181448Z 25009KT 10/01 A2997 RMK A01 T00950013  RH  057%=      5-min Rain = 0
KSP2 181449Z 25009KT 10/01 A2997 RMK A01 T00960013  RH  056%=      5-min Rain = 0
KSP2 181450Z 25011G16KT 10/01 A2997 RMK A01 T00980014  RH  056%=      5-min Rain = 0
KSP2 181451Z 25012KT 10/01 A2997 RMK A01 T00990013  RH  055%=      5-min Rain = 0
KSP2 181452Z 25013KT 10/01 A2997 RMK A01 T01000012  RH  054%=      5-min Rain = 0
KSP2 181453Z 25012KT 10/01 A2997 RMK A01 T01010012  RH  054%=      5-min Rain = 0
KSP2 181454Z 25013KT 10/01 A2997 RMK A01 T01020012  RH  054%=      5-min Rain = 0
KSP2 181455Z 25014KT 10/01 A2997 RMK A01 T01020011  RH  053%=      5-min Rain = 0
KSP2 181456Z 25015KT 10/01 A2997 RMK A01 T01020010  RH  053%=      5-min Rain = 0
KSP2 181457Z 25013KT 10/01 A2997 RMK A01 T01020010  RH  053%=      5-min Rain = 0
KSP2 181458Z 25013KT 10/01 A2997 RMK A01 T01020010  RH  053%=      5-min Rain = 0
KSP2 181459Z 25013KT 10/01 A2997 RMK A01 T01030011  RH  053%=      5-min Rain = 0
KSP2 181500Z 25013KT 10/01 A2997 RMK A01 T01040010  RH  052%=      5-min Rain = 0
KSP2 181501Z 26012KT 11/01 A2997 RMK A01 T01050010  RH  052%=      5-min Rain = 0
KSP2 181502Z 26010KT 10/01 A2998 RMK A01 T01040011  RH  052%=      5-min Rain = 0
KSP2 181503Z 26008KT 10/01 A2998 RMK A01 T01040012  RH  053%=      5-min Rain = 0
KSP2 181504Z 26007KT 10/01 A2998 RMK A01 T01040013  RH  053%=      5-min Rain = 0
KSP2 181505Z 26008KT 11/01 A2998 RMK A01 T01060014  RH  053%=      5-min Rain = 0
KSP2 181506Z 26008KT 11/01 A2998 RMK A01 T01070013  RH  052%=      5-min Rain = 0
KSP2 181507Z 25008KT 11/01 A2998 RMK A01 T01070013  RH  052%=      5-min Rain = 0
KSP2 181508Z 25008KT 11/02 A2998 RMK A01 T01080015  RH  052%=      5-min Rain = 0
KSP2 181509Z 24011KT 11/02 A2998 RMK A01 T01100015  RH  052%=      5-min Rain = 0
KSP2 181510Z 25008KT 11/01 A2998 RMK A01 T01110013  RH  051%=      5-min Rain = 0
KSP2 181511Z 25008KT 11/01 A2998 RMK A01 T01110014  RH  051%=      5-min Rain = 0
KSP2 181512Z 24010KT 11/01 A2998 RMK A01 T01130014  RH  051%=      5-min Rain = 0
KSP2 181513Z 24010KT 11/01 A2998 RMK A01 T01130011  RH  050%=      5-min Rain = 0
KSP2 181514Z 25011KT 11/01 A2998 RMK A01 T01120012  RH  050%=      5-min Rain = 0
KSP2 181515Z 25012KT 11/01 A2998 RMK A01 T01120011  RH  050%=      5-min Rain = 0
KSP2 181516Z 25008KT 11/01 A2998 RMK A01 T01120011  RH  050%=      5-min Rain = 0
KSP2 181517Z 26009KT 11/01 A2998 RMK A01 T01130014  RH  050%=      5-min Rain = 0
KSP2 181518Z 26012KT 12/01 A2998 RMK A01 T01150013  RH  050%=      5-min Rain = 0
KSP2 181519Z 26010KT 12/01 A2998 RMK A01 T01150013  RH  049%=      5-min Rain = 0
KSP2 181520Z 26009KT 12/01 A2998 RMK A01 T01150014  RH  050%=      5-min Rain = 0
KSP2 181521Z 26011KT 12/02 A2998 RMK A01 T01160015  RH  050%=      5-min Rain = 0
KSP2 181522Z 26011G16KT 12/01 A2998 RMK A01 T01160013  RH  049%=      5-min Rain = 0
KSP2 181523Z 26014KT 11/01 A2998 RMK A01 T01140011  RH  049%=      5-min Rain = 0
KSP2 181524Z 26013KT 11/01 A2998 RMK A01 T01130010  RH  049%=      5-min Rain = 0
KSP2 181525Z 26012KT 11/01 A2998 RMK A01 T01120011  RH  050%=      5-min Rain = 0
KSP2 181526Z 26012KT 11/01 A2998 RMK A01 T01120011  RH  050%=      5-min Rain = 0
KSP2 181527Z 25013KT 11/01 A2998 RMK A01 T01120011  RH  050%=      5-min Rain = 0
KSP2 181528Z 26011KT 11/01 A2998 RMK A01 T01130011  RH  050%=      5-min Rain = 0
KSP2 181529Z 26012KT 11/01 A2998 RMK A01 T01130013  RH  050%=      5-min Rain = 0
KSP2 181530Z 26013KT 11/01 A2998 RMK A01 T01140012  RH  049%=      5-min Rain = 0
KSP2 181531Z 25011KT 11/01 A2998 RMK A01 T01140012  RH  049%=      5-min Rain = 0
KSP2 181532Z 26010KT 11/01 A2998 RMK A01 T01140012  RH  050%=      5-min Rain = 0
KSP2 181533Z 26011KT 12/01 A2998 RMK A01 T01150013  RH  049%=      5-min Rain = 0
KSP2 181534Z 26012KT 12/01 A2998 RMK A01 T01150012  RH  049%=      5-min Rain = 0
KSP2 181535Z 26012KT 11/01 A2998 RMK A01 T01140011  RH  049%=      5-min Rain = 0
KSP2 181536Z 26012KT 11/01 A2998 RMK A01 T01140012  RH  049%=      5-min Rain = 0
KSP2 181537Z 26012KT 11/01 A2998 RMK A01 T01140012  RH  049%=      5-min Rain = 0
KSP2 181538Z 26011KT 11/01 A2998 RMK A01 T01140012  RH  050%=      5-min Rain = 0
KSP2 181539Z 26011KT 11/01 A2998 RMK A01 T01140013  RH  050%=      5-min Rain = 0
KSP2 181540Z 25010KT 12/02 A2998 RMK A01 T01160015  RH  050%=      5-min Rain = 0
KSP2 181541Z 25011KT 12/02 A2998 RMK A01 T01190016  RH  049%=      5-min Rain = 0
KSP2 181542Z 26012KT 12/02 A2998 RMK A01 T01200015  RH  049%=      5-min Rain = 0
KSP2 181543Z 26011KT 12/01 A2998 RMK A01 T01190014  RH  048%=      5-min Rain = 0
KSP2 181544Z 27011KT 12/02 A2998 RMK A01 T01200015  RH  049%=      5-min Rain = 0
KSP2 181545Z 25012KT 12/02 A2998 RMK A01 T01210015  RH  048%=      5-min Rain = 0
KSP2 181546Z 25012KT 12/01 A2998 RMK A01 T01220014  RH  048%=      5-min Rain = 0
KSP2 181547Z 26013KT 12/01 A2998 RMK A01 T01220012  RH  047%=      5-min Rain = 0
KSP2 181548Z 26011KT 12/01 A2998 RMK A01 T01220013  RH  047%=      5-min Rain = 0
KSP2 181549Z 26010KT 12/01 A2998 RMK A01 T01230014  RH  047%=      5-min Rain = 0
KSP2 181550Z 26007KT 13/02 A2997 RMK A01 T01250016  RH  047%=      5-min Rain = 0
KSP2 181551Z 26010KT 13/02 A2997 RMK A01 T01290018  RH  047%=      5-min Rain = 0
KSP2 181552Z 26011KT 13/02 A2997 RMK A01 T01300016  RH  046%=      5-min Rain = 0
KSP2 181553Z 25011KT 13/01 A2997 RMK A01 T01300014  RH  045%=      5-min Rain = 0
KSP2 181554Z 25011KT 13/01 A2997 RMK A01 T01290013  RH  045%=      5-min Rain = 0
KSP2 181555Z 26012KT 13/01 A2997 RMK A01 T01280013  RH  045%=      5-min Rain = 0
KSP2 181556Z 25012KT 13/01 A2997 RMK A01 T01280012  RH  045%=      5-min Rain = 0
KSP2 181557Z 26014KT 13/01 A2997 RMK A01 T01270012  RH  045%=      5-min Rain = 0
KSP2 181558Z 26014KT 13/01 A2997 RMK A01 T01270011  RH  045%=      5-min Rain = 0
KSP2 181559Z 25014KT 13/01 A2997 RMK A01 T01270011  RH  045%=      5-min Rain = 0
KSP2 181600Z 25014KT 13/01 A2997 RMK A01 T01270012  RH  045%=      5-min Rain = 0
KSP2 181601Z 26013KT 13/01 A2997 RMK A01 T01280012  RH  045%=      5-min Rain = 0
KSP2 181602Z 25012G17KT 13/01 A2997 RMK A01 T01280012  RH  045%=      5-min Rain = 0
KSP2 181603Z 26014KT 13/01 A2997 RMK A01 T01280012  RH  045%=      5-min Rain = 0
KSP2 181604Z 26014KT 13/01 A2997 RMK A01 T01280012  RH  045%=      5-min Rain = 0
KSP2 181605Z 25013KT 13/01 A2997 RMK A01 T01290011  RH  045%=      5-min Rain = 0
KSP2 181606Z 26012KT 13/01 A2997 RMK A01 T01290012  RH  045%=      5-min Rain = 0
KSP2 181607Z 26013KT 13/01 A2997 RMK A01 T01300012  RH  044%=      5-min Rain = 0
KSP2 181608Z 26013KT 13/01 A2997 RMK A01 T01300012  RH  045%=      5-min Rain = 0
KSP2 181609Z 26014KT 13/01 A2997 RMK A01 T01310012  RH  044%=      5-min Rain = 0
KSP2 181610Z 26014KT 13/01 A2997 RMK A01 T01310012  RH  044%=      5-min Rain = 0
KSP2 181611Z 27013KT 13/01 A2997 RMK A01 T01310012  RH  044%=      5-min Rain = 0
KSP2 181612Z 27011KT 13/01 A2997 RMK A01 T01320012  RH  044%=      5-min Rain = 0
KSP2 181613Z 27012KT 13/01 A2997 RMK A01 T01340013  RH  044%=      5-min Rain = 0
KSP2 181614Z 26013KT 13/01 A2997 RMK A01 T01340013  RH  044%=      5-min Rain = 0
KSP2 181615Z 27011KT 14/01 A2997 RMK A01 T01350012  RH  043%=      5-min Rain = 0
KSP2 181616Z 26011KT 14/01 A2997 RMK A01 T01350013  RH  043%=      5-min Rain = 0
KSP2 181617Z 26011KT 14/01 A2997 RMK A01 T01370014  RH  043%=      5-min Rain = 0
KSP2 181618Z 26011KT 14/01 A2997 RMK A01 T01370013  RH  043%=      5-min Rain = 0
KSP2 181619Z 27011KT 14/01 A2998 RMK A01 T01380013  RH  043%=      5-min Rain = 0
KSP2 181620Z 28010KT 14/01 A2998 RMK A01 T01390014  RH  043%=      5-min Rain = 0
KSP2 181621Z 27010KT 14/02 A2998 RMK A01 T01400015  RH  042%=      5-min Rain = 0
KSP2 181622Z 27011KT 14/01 A2998 RMK A01 T01410014  RH  042%=      5-min Rain = 0
KSP2 181623Z 28009KT 14/02 A2997 RMK A01 T01420015  RH  042%=      5-min Rain = 0
KSP2 181624Z 28009KT 15/02 A2998 RMK A01 T01450017  RH  042%=      5-min Rain = 0
KSP2 181625Z 28012KT 15/02 A2998 RMK A01 T01480017  RH  041%=      5-min Rain = 0
KSP2 181626Z 28011KT 15/01 A2998 RMK A01 T01480014  RH  040%=      5-min Rain = 0
KSP2 181627Z 27011KT 15/02 A2998 RMK A01 T01470015  RH  041%=      5-min Rain = 0
KSP2 181628Z 28010KT 15/01 A2998 RMK A01 T01450014  RH  041%=      5-min Rain = 0
KSP2 181629Z 28011KT 15/02 A2998 RMK A01 T01450015  RH  041%=      5-min Rain = 0
KSP2 181630Z 28011KT 15/02 A2998 RMK A01 T01450016  RH  041%=      5-min Rain = 0
KSP2 181631Z 28010KT 15/02 A2998 RMK A01 T01470015  RH  041%=      5-min Rain = 0
KSP2 181632Z 27009KT 15/02 A2998 RMK A01 T01470016  RH  041%=      5-min Rain = 0
KSP2 181633Z 27011KT 15/01 A2998 RMK A01 T01480014  RH  040%=      5-min Rain = 0
KSP2 181634Z 27011KT 15/01 A2998 RMK A01 T01460013  RH  040%=      5-min Rain = 0
KSP2 181635Z 28009KT 15/01 A2998 RMK A01 T01460014  RH  041%=      5-min Rain = 0
KSP2 181636Z 30009KT 15/02 A2998 RMK A01 T01480016  RH  041%=      5-min Rain = 0
KSP2 181637Z 28010KT 15/02 A2998 RMK A01 T01500017  RH  041%=      5-min Rain = 0
KSP2 181638Z 29009KT 15/02 A2998 RMK A01 T01520017  RH  040%=      5-min Rain = 0
KSP2 181639Z 30008KT 15/02 A2998 RMK A01 T01540018  RH  040%=      5-min Rain = 0
KSP2 181640Z 29008KT 16/02 A2998 RMK A01 T01550018  RH  039%=      5-min Rain = 0
KSP2 181641Z 29010KT 16/02 A2998 RMK A01 T01560017  RH  039%=      5-min Rain = 0
KSP2 181642Z 29010KT 16/02 A2998 RMK A01 T01560017  RH  039%=      5-min Rain = 0
KSP2 181643Z 29008KT 16/02 A2997 RMK A01 T01550017  RH  039%=      5-min Rain = 0
KSP2 181644Z 27010KT 16/02 A2997 RMK A01 T01570018  RH  039%=      5-min Rain = 0
KSP2 181645Z 28011KT 16/02 A2997 RMK A01 T01570016  RH  038%=      5-min Rain = 0
KSP2 181646Z 28009KT 16/01 A2997 RMK A01 T01560014  RH  038%=      5-min Rain = 0
KSP2 181647Z 29009KT 16/02 A2997 RMK A01 T01550015  RH  039%=      5-min Rain = 0
KSP2 181648Z 29009KT 16/01 A2997 RMK A01 T01550013  RH  038%=      5-min Rain = 0
KSP2 181649Z 28009KT 16/01 A2997 RMK A01 T01560014  RH  038%=      5-min Rain = 0
KSP2 181650Z 28008KT 16/01 A2997 RMK A01 T01570014  RH  038%=      5-min Rain = 0
KSP2 181651Z 28009KT 16/02 A2997 RMK A01 T01580015  RH  038%=      5-min Rain = 0
KSP2 181652Z 30008KT 16/02 A2997 RMK A01 T01580015  RH  038%=      5-min Rain = 0
KSP2 181653Z 29008KT 16/02 A2997 RMK A01 T01600015  RH  038%=      5-min Rain = 0
KSP2 181654Z 29008KT 16/01 A2997 RMK A01 T01610013  RH  037%=      5-min Rain = 0
KSP2 181655Z 29009KT 16/01 A2997 RMK A01 T01620014  RH  037%=      5-min Rain = 0
KSP2 181656Z 29010KT 16/01 A2997 RMK A01 T01620014  RH  037%=      5-min Rain = 0
KSP2 181657Z 29009KT 16/01 A2997 RMK A01 T01610011  RH  036%=      5-min Rain = 0
KSP2 181658Z 28008KT 16/01 A2997 RMK A01 T01610009  RH  036%=      5-min Rain = 0
KSP2 181659Z 27008KT 16/01 A2997 RMK A01 T01610010  RH  036%=      5-min Rain = 0
KSP2 181700Z 27006KT 16/01 A2997 RMK A01 T01610011  RH  036%=      5-min Rain = 0
KSP2 181701Z 26008KT 16/01 A2997 RMK A01 T01620014  RH  037%=      5-min Rain = 0
KSP2 181702Z 26009KT 16/01 A2996 RMK A01 T01640013  RH  036%=      5-min Rain = 0
KSP2 181703Z 26008KT 16/01 A2996 RMK A01 T01640012  RH  036%=      5-min Rain = 0
KSP2 181704Z 26006KT 16/01 A2996 RMK A01 T01630011  RH  036%=      5-min Rain = 0
KSP2 181705Z 27008KT 16/01 A2996 RMK A01 T01640013  RH  036%=      5-min Rain = 0
KSP2 181706Z 28009KT 17/01 A2996 RMK A01 T01650009  RH  035%=      5-min Rain = 0
KSP2 181707Z 27008KT 17/01 A2996 RMK A01 T01650010  RH  035%=      5-min Rain = 0
KSP2 181708Z 26007KT 17/01 A2996 RMK A01 T01650013  RH  036%=      5-min Rain = 0
KSP2 181709Z 27008KT 17/01 A2996 RMK A01 T01650014  RH  036%=      5-min Rain = 0
KSP2 181710Z 27008KT 17/01 A2996 RMK A01 T01650012  RH  036%=      5-min Rain = 0
KSP2 181711Z 26009KT 17/01 A2996 RMK A01 T01660011  RH  035%=      5-min Rain = 0
KSP2 181712Z 27008KT 17/01 A2996 RMK A01 T01660012  RH  035%=      5-min Rain = 0
KSP2 181713Z 25006KT 17/01 A2996 RMK A01 T01670013  RH  035%=      5-min Rain = 0
KSP2 181714Z 25008KT 17/01 A2996 RMK A01 T01680013  RH  035%=      5-min Rain = 0
KSP2 181715Z 25008KT 17/01 A2996 RMK A01 T01700013  RH  035%=      5-min Rain = 0
KSP2 181716Z 27007KT 17/01 A2996 RMK A01 T01700012  RH  034%=      5-min Rain = 0
KSP2 181717Z 27007KT 17/01 A2996 RMK A01 T01710008  RH  033%=      5-min Rain = 0
KSP2 181718Z 27007KT 17/01 A2996 RMK A01 T01700010  RH  034%=      5-min Rain = 0
KSP2 181719Z 26005KT 17/01 A2996 RMK A01 T01690012  RH  035%=      5-min Rain = 0
KSP2 181720Z 27007KT 17/01 A2996 RMK A01 T01720014  RH  035%=      5-min Rain = 0
KSP2 181721Z 27006KT 17/01 A2996 RMK A01 T01740012  RH  034%=      5-min Rain = 0
KSP2 181722Z 26006KT 18/01 A2995 RMK A01 T01760010  RH  032%=      5-min Rain = 0
KSP2 181723Z 26005KT 18/01 A2996 RMK A01 T01790014  RH  033%=      5-min Rain = 0
KSP2 181724Z 28008KT 18/01 A2996 RMK A01 T01810014  RH  033%=      5-min Rain = 0
KSP2 181725Z 28006KT 18/01 A2996 RMK A01 T01800010  RH  032%=      5-min Rain = 0
KSP2 181726Z 28009KT 18/01 A2995 RMK A01 T01800011  RH  032%=      5-min Rain = 0
KSP2 181727Z 28009KT 18/01 A2995 RMK A01 T01780005  RH  031%=      5-min Rain = 0
KSP2 181728Z 27008KT 18/01 A2995 RMK A01 T01750005  RH  032%=      5-min Rain = 0
KSP2 181729Z 27006KT 17/01 A2995 RMK A01 T01740007  RH  032%=      5-min Rain = 0
KSP2 181730Z 28008KT 18/01 A2995 RMK A01 T01760012  RH  033%=      5-min Rain = 0
KSP2 181731Z 29008KT 18/01 A2995 RMK A01 T01790013  RH  033%=      5-min Rain = 0
KSP2 181732Z 29006KT 18/01 A2995 RMK A01 T01810013  RH  032%=      5-min Rain = 0
KSP2 181733Z 28004KT 18/02 A2995 RMK A01 T01820015  RH  033%=      5-min Rain = 0
KSP2 181734Z 29006KT 18/02 A2995 RMK A01 T01840017  RH  033%=      5-min Rain = 0
KSP2 181735Z 29007KT 19/02 A2995 RMK A01 T01860015  RH  032%=      5-min Rain = 0
KSP2 181736Z 30007KT 19/01 A2995 RMK A01 T01870013  RH  031%=      5-min Rain = 0
KSP2 181737Z 28008KT 19/01 A2995 RMK A01 T01860007  RH  030%=      5-min Rain = 0
KSP2 181738Z 28007KT 18/00 A2995 RMK A01 T01820001  RH  030%=      5-min Rain = 0
KSP2 181739Z 29008KT 18/00 A2995 RMK A01 T01820000  RH  029%=      5-min Rain = 0
KSP2 181740Z 28007KT 18/00 A2995 RMK A01 T01800003  RH  030%=      5-min Rain = 0
KSP2 181741Z 28007KT 18/01 A2995 RMK A01 T01810008  RH  031%=      5-min Rain = 0
KSP2 181742Z 28006KT 18/01 A2995 RMK A01 T01800009  RH  032%=      5-min Rain = 0
KSP2 181743Z 29007KT 18/01 A2995 RMK A01 T01820009  RH  031%=      5-min Rain = 0
KSP2 181744Z 27007KT 18/01 A2995 RMK A01 T01830006  RH  030%=      5-min Rain = 0
KSP2 181745Z 27005KT 18/01 A2995 RMK A01 T01820007  RH  031%=      5-min Rain = 0
KSP2 181746Z 28007KT 18/01 A2995 RMK A01 T01830011  RH  032%=      5-min Rain = 0
KSP2 181747Z 29006KT 19/01 A2995 RMK A01 T01860010  RH  031%=      5-min Rain = 0
KSP2 181748Z 30005KT 19/01 A2995 RMK A01 T01870011  RH  031%=      5-min Rain = 0
KSP2 181749Z 29007KT 19/01 A2995 RMK A01 T01890006  RH  029%=      5-min Rain = 0
KSP2 181750Z 29006KT 19/00 A2995 RMK A01 T01870003  RH  029%=      5-min Rain = 0
KSP2 181751Z 29006KT 19/01 A2995 RMK A01 T01870005  RH  030%=      5-min Rain = 0
KSP2 181752Z 29004KT 19/00 A2995 RMK A01 T01870004  RH  029%=      5-min Rain = 0
KSP2 181753Z 29004KT 19/01 A2995 RMK A01 T01870006  RH  030%=      5-min Rain = 0
KSP2 181754Z 31007KT 19/01 A2995 RMK A01 T01880005  RH  029%=      5-min Rain = 0
KSP2 181755Z 28005KT 19/00 A2995 RMK A01 T01890002  RH  028%=      5-min Rain = 0
KSP2 181756Z 29005KT 19/M00 A2995 RMK A01 T01891002  RH  028%=      5-min Rain = 0
KSP2 181757Z 29005KT 19/00 A2995 RMK A01 T01870001  RH  028%=      5-min Rain = 0
KSP2 181758Z 28006KT 19/01 A2995 RMK A01 T01900009  RH  030%=      5-min Rain = 0
KSP2 181759Z 27005KT 19/01 A2995 RMK A01 T01910008  RH  029%=      5-min Rain = 0
KSP2 181800Z 32004KT 19/01 A2995 RMK A01 T01900007  RH  029%=      5-min Rain = 0
KSP2 181801Z 29003KT 19/00 A2995 RMK A01 T01880004  RH  029%=      5-min Rain = 0
KSP2 181802Z 27006KT 19/01 A2995 RMK A01 T01870006  RH  029%=      5-min Rain = 0
KSP2 181803Z 28006KT 19/00 A2995 RMK A01 T01870004  RH  029%=      5-min Rain = 0
KSP2 181804Z 30004KT 19/01 A2995 RMK A01 T01880006  RH  029%=      5-min Rain = 0
KSP2 181805Z 30005KT 19/01 A2994 RMK A01 T01900007  RH  029%=      5-min Rain = 0
KSP2 181806Z 29004KT 19/01 A2994 RMK A01 T01910005  RH  029%=      5-min Rain = 0
KSP2 181807Z 29003KT 19/00 A2994 RMK A01 T01920004  RH  028%=      5-min Rain = 0
KSP2 181808Z 31003KT 19/01 A2994 RMK A01 T01920006  RH  029%=      5-min Rain = 0
KSP2 181809Z 30005KT 19/00 A2994 RMK A01 T01930001  RH  027%=      5-min Rain = 0
KSP2 181810Z 32006KT 19/00 A2994 RMK A01 T019400-0  RH  027%=      5-min Rain = 0
KSP2 181811Z 31003KT 19/M00 A2994 RMK A01 T01941002  RH  027%=      5-min Rain = 0
KSP2 181812Z 33005KT 20/M01 A2994 RMK A01 T01951007  RH  026%=      5-min Rain = 0
KSP2 181813Z 33005KT 20/M01 A2994 RMK A01 T01971006  RH  025%=      5-min Rain = 0
KSP2 181814Z 32004KT 20/M01 A2994 RMK A01 T01981005  RH  025%=      5-min Rain = 0
KSP2 181815Z 34003KT 20/M00 A2994 RMK A01 T01971003  RH  026%=      5-min Rain = 0
KSP2 181816Z 30004KT 20/00 A2994 RMK A01 T01970001  RH  027%=      5-min Rain = 0
KSP2 181817Z 30004KT 20/00 A2994 RMK A01 T01970002  RH  027%=      5-min Rain = 0
KSP2 181818Z 31003KT 20/M00 A2994 RMK A01 T01951001  RH  027%=      5-min Rain = 0
KSP2 181819Z 33002KT 19/M00 A2993 RMK A01 T01931001  RH  027%=      5-min Rain = 0
KSP2 181820Z 34003KT 19/00 A2993 RMK A01 T01940003  RH  028%=      5-min Rain = 0
KSP2 181821Z 29001KT 20/01 A2993 RMK A01 T01970005  RH  028%=      5-min Rain = 0
KSP2 181822Z 30003KT 20/01 A2993 RMK A01 T01990005  RH  027%=      5-min Rain = 0
KSP2 181823Z 28005KT 20/01 A2993 RMK A01 T01990005  RH  027%=      5-min Rain = 0
KSP2 181824Z 25003KT 20/00 A2993 RMK A01 T01990003  RH  027%=      5-min Rain = 0
KSP2 181825Z 24002KT 20/00 A2993 RMK A01 T01980004  RH  027%=      5-min Rain = 0
KSP2 181826Z 25003KT 20/00 A2993 RMK A01 T01980003  RH  027%=      5-min Rain = 0
KSP2 181827Z 23000KT 20/00 A2993 RMK A01 T01980001  RH  027%=      5-min Rain = 0
KSP2 181828Z 21001KT 20/00 A2993 RMK A01 T01990003  RH  027%=      5-min Rain = 0
KSP2 181829Z 28005KT 20/00 A2993 RMK A01 T02010000  RH  026%=      5-min Rain = 0
KSP2 181830Z 27005KT 20/M00 A2993 RMK A01 T02001003  RH  026%=      5-min Rain = 0
KSP2 181831Z 26003KT 20/M00 A2992 RMK A01 T01991002  RH  026%=      5-min Rain = 0
KSP2 181832Z 22002KT 20/M00 A2992 RMK A01 T02001002  RH  026%=      5-min Rain = 0
KSP2 181833Z 27002KT 20/M00 A2992 RMK A01 T02011002  RH  026%=      5-min Rain = 0
KSP2 181834Z 32004KT 20/M00 A2992 RMK A01 T02011004  RH  025%=      5-min Rain = 0
KSP2 181835Z 32004KT 20/M00 A2992 RMK A01 T02011003  RH  025%=      5-min Rain = 0
KSP2 181836Z 32002KT 20/00 A2992 RMK A01 T02030000  RH  026%=      5-min Rain = 0
KSP2 181837Z 30004KT 20/M00 A2992 RMK A01 T02041001  RH  025%=      5-min Rain = 0
KSP2 181838Z 30005KT 20/M00 A2992 RMK A01 T02031001  RH  025%=      5-min Rain = 0
KSP2 181839Z 30005KT 20/00 A2992 RMK A01 T020200-0  RH  026%=      5-min Rain = 0
KSP2 181840Z 31002KT 20/00 A2992 RMK A01 T02010000  RH  026%=      5-min Rain = 0
KSP2 181841Z 31003KT 20/M00 A2992 RMK A01 T02021001  RH  026%=      5-min Rain = 0
KSP2 181842Z 30004KT 20/00 A2992 RMK A01 T02030001  RH  026%=      5-min Rain = 0
KSP2 181843Z 26003KT 21/M00 A2992 RMK A01 T02051001  RH  025%=      5-min Rain = 0
KSP2 181844Z 27004KT 20/M00 A2992 RMK A01 T02041002  RH  025%=      5-min Rain = 0
KSP2 181845Z 27003KT 20/00 A2992 RMK A01 T020400-0  RH  026%=      5-min Rain = 0
KSP2 181846Z 23000KT 20/M00 A2992 RMK A01 T02041002  RH  025%=      5-min Rain = 0
KSP2 181847Z 05000KT 21/M00 A2992 RMK A01 T02051002  RH  025%=      5-min Rain = 0
KSP2 181848Z 27001KT 21/M00 A2992 RMK A01 T02061001  RH  025%=      5-min Rain = 0
KSP2 181849Z 30002KT 21/M00 A2992 RMK A01 T02081004  RH  024%=      5-min Rain = 0
KSP2 181850Z 31003KT 21/M01 A2992 RMK A01 T02081007  RH  024%=      5-min Rain = 0
KSP2 181851Z 29003KT 21/M01 A2992 RMK A01 T02081006  RH  024%=      5-min Rain = 0
KSP2 181852Z 32004KT 21/M01 A2992 RMK A01 T02101007  RH  024%=      5-min Rain = 0
KSP2 181853Z 31004KT 21/M01 A2992 RMK A01 T02111009  RH  023%=      5-min Rain = 0
KSP2 181854Z 31004KT 21/M01 A2992 RMK A01 T02121011  RH  022%=      5-min Rain = 0
KSP2 181855Z 33002KT 21/M01 A2992 RMK A01 T02111011  RH  023%=      5-min Rain = 0
KSP2 181856Z 26003KT 21/M01 A2992 RMK A01 T02101013  RH  022%=      5-min Rain = 0
KSP2 181857Z 26004KT 21/M02 A2992 RMK A01 T02071018  RH  022%=      5-min Rain = 0
KSP2 181858Z 28003KT 21/M02 A2992 RMK A01 T02061015  RH  023%=      5-min Rain = 0
KSP2 181859Z 31004KT 21/M01 A2992 RMK A01 T02071013  RH  023%=      5-min Rain = 0
KSP2 181900Z 34004KT 21/M01 A2992 RMK A01 T02081012  RH  023%=      5-min Rain = 0
KSP2 181901Z 35004KT 21/M01 A2992 RMK A01 T02091012  RH  023%=      5-min Rain = 0
KSP2 181902Z 34004KT 21/M01 A2992 RMK A01 T02091010  RH  023%=      5-min Rain = 0
KSP2 181903Z 34005KT 21/M01 A2992 RMK A01 T02111006  RH  023%=      5-min Rain = 0
KSP2 181904Z 33004KT 21/M01 A2992 RMK A01 T02131008  RH  023%=      5-min Rain = 0
KSP2 181905Z 31003KT 21/M01 A2991 RMK A01 T02121009  RH  023%=      5-min Rain = 0
KSP2 181906Z 30002KT 21/M01 A2991 RMK A01 T02101010  RH  023%=      5-min Rain = 0
KSP2 181907Z 36002KT 21/M01 A2991 RMK A01 T02081009  RH  023%=      5-min Rain = 0
KSP2 181908Z 03002KT 21/M01 A2991 RMK A01 T02081010  RH  023%=      5-min Rain = 0
KSP2 181909Z 04001KT 21/M01 A2991 RMK A01 T02091010  RH  023%=      5-min Rain = 0
KSP2 181910Z 31003KT 21/M01 A2991 RMK A01 T02121009  RH  023%=      5-min Rain = 0
KSP2 181911Z 31005KT 22/M01 A2991 RMK A01 T02151008  RH  023%=      5-min Rain = 0
KSP2 181912Z 29004KT 22/M01 A2991 RMK A01 T02151008  RH  022%=      5-min Rain = 0
KSP2 181913Z 31004KT 22/M01 A2991 RMK A01 T02161009  RH  022%=      5-min Rain = 0
KSP2 181914Z 31006KT 22/M01 A2991 RMK A01 T02171011  RH  022%=      5-min Rain = 0
KSP2 181915Z 31005KT 22/M01 A2991 RMK A01 T02161014  RH  021%=      5-min Rain = 0
KSP2 181916Z 31004KT 22/M02 A2991 RMK A01 T02151016  RH  021%=      5-min Rain = 0
KSP2 181917Z 30003KT 22/M02 A2991 RMK A01 T02151019  RH  021%=      5-min Rain = 0
KSP2 181918Z 28003KT 21/M02 A2991 RMK A01 T02141023  RH  020%=      5-min Rain = 0
KSP2 181919Z 31004KT 22/M02 A2991 RMK A01 T02151024  RH  020%=      5-min Rain = 0
KSP2 181920Z 29003KT 22/M03 A2991 RMK A01 T02161029  RH  019%=      5-min Rain = 0
KSP2 181921Z 29004KT 22/M03 A2991 RMK A01 T02151028  RH  020%=      5-min Rain = 0
KSP2 181922Z 29003KT 22/M02 A2991 RMK A01 T02161023  RH  020%=      5-min Rain = 0
KSP2 181923Z 23002KT 22/M03 A2991 RMK A01 T02151026  RH  020%=      5-min Rain = 0
KSP2 181924Z 20002KT 21/M03 A2991 RMK A01 T02141025  RH  020%=      5-min Rain = 0
KSP2 181925Z 20003KT 22/M03 A2991 RMK A01 T02151025  RH  020%=      5-min Rain = 0
KSP2 181926Z 24002KT 22/M02 A2991 RMK A01 T02171022  RH  020%=      5-min Rain = 0
KSP2 181927Z 35004KT 22/M02 A2991 RMK A01 T02191021  RH  020%=      5-min Rain = 0
KSP2 181928Z 36003KT 22/M02 A2991 RMK A01 T02171022  RH  020%=      5-min Rain = 0
KSP2 181929Z 00003KT 22/M02 A2991 RMK A01 T02161021  RH  020%=      5-min Rain = 0
KSP2 181930Z 01001KT 22/M02 A299 RMK A01 T02151021  RH  020%=      5-min Rain = 0
KSP2 181931Z 13000KT 22/M02 A299 RMK A01 T02151020  RH  021%=      5-min Rain = 0
KSP2 181932Z 34001KT 22/M02 A299 RMK A01 T02161017  RH  021%=      5-min Rain = 0
KSP2 181933Z 35004KT 22/M01 A299 RMK A01 T02181013  RH  021%=      5-min Rain = 0
KSP2 181934Z 34006KT 22/M01 A299 RMK A01 T02191012  RH  021%=      5-min Rain = 0
KSP2 181935Z 35006KT 22/M01 A299 RMK A01 T02211013  RH  021%=      5-min Rain = 0
KSP2 181941Z 33004KT 22/M01 A299 RMK A01 T02221011  RH  021%=      5-min Rain = 0
KSP2 181942Z 35005KT 22/M01 A299 RMK A01 T02221014  RH  021%=      5-min Rain = 0
KSP2 181943Z 33003KT 22/M02 A299 RMK A01 T02221017  RH  020%=      5-min Rain = 0
KSP2 181944Z 33002KT 22/M02 A299 RMK A01 T02211019  RH  020%=      5-min Rain = 0
KSP2 181945Z 34001KT 22/M02 A299 RMK A01 T02181019  RH  020%=      5-min Rain = 0
KSP2 181946Z 31003KT 22/M02 A299 RMK A01 T02191016  RH  021%=      5-min Rain = 0
KSP2 181947Z 32004KT 22/M02 A299 RMK A01 T02211018  RH  020%=      5-min Rain = 0
KSP2 181948Z 31003KT 22/M02 A299 RMK A01 T02201020  RH  020%=      5-min Rain = 0
KSP2 181949Z 32005KT 22/M02 A299 RMK A01 T02201020  RH  020%=      5-min Rain = 0
KSP2 181950Z 35005KT 22/M02 A299 RMK A01 T02221022  RH  020%=      5-min Rain = 0
KSP2 181951Z 01005KT 22/M03 A299 RMK A01 T02211025  RH  019%=      5-min Rain = 0
KSP2 181952Z 35003KT 22/M03 A299 RMK A01 T02211027  RH  019%=      5-min Rain = 0
KSP2 181953Z 35002KT 22/M03 A299 RMK A01 T02201026  RH  019%=      5-min Rain = 0
KSP2 181954Z 01004KT 22/M02 A2989 RMK A01 T02211020  RH  020%=      5-min Rain = 0
KSP2 181955Z 02003KT 22/M02 A2989 RMK A01 T02221019  RH  020%=      5-min Rain = 0
KSP2 181956Z 02003KT 22/M02 A2989 RMK A01 T02211019  RH  020%=      5-min Rain = 0
KSP2 181957Z 00004KT 22/M02 A2989 RMK A01 T02211018  RH  020%=      5-min Rain = 0
KSP2 181958Z 36005KT 22/M02 A2989 RMK A01 T02221020  RH  020%=      5-min Rain = 0
KSP2 181959Z 35005KT 22/M02 A2989 RMK A01 T02231018  RH  020%=      5-min Rain = 0
KSP2 182000Z 35004KT 22/M02 A2989 RMK A01 T02221017  RH  020%=      5-min Rain = 0
KSP2 182001Z 34002KT 22/M02 A2989 RMK A01 T02191017  RH  020%=      5-min Rain = 0
KSP2 182002Z 36002KT 22/M02 A2989 RMK A01 T02191016  RH  021%=      5-min Rain = 0
KSP2 182003Z 35002KT 22/M02 A2989 RMK A01 T02201015  RH  021%=      5-min Rain = 0
KSP2 182004Z 03002KT 22/M02 A2989 RMK A01 T02221018  RH  020%=      5-min Rain = 0
KSP2 182005Z 05003KT 22/M03 A2989 RMK A01 T02231030  RH  018%=      5-min Rain = 0
KSP2 182006Z 03004KT 22/M03 A2989 RMK A01 T02241028  RH  018%=      5-min Rain = 0
KSP2 182007Z 35006KT 23/M02 A2989 RMK A01 T02251023  RH  019%=      5-min Rain = 0
KSP2 182008Z 33006KT 23/M02 A2989 RMK A01 T02261020  RH  019%=      5-min Rain = 0
KSP2 182009Z 31003KT 23/M02 A2989 RMK A01 T02271021  RH  019%=      5-min Rain = 0
KSP2 182010Z 33001KT 23/M02 A2989 RMK A01 T02271021  RH  019%=      5-min Rain = 0
KSP2 182011Z 05005KT 23/M02 A2989 RMK A01 T02271024  RH  019%=      5-min Rain = 0
KSP2 182012Z 03003KT 23/M02 A2989 RMK A01 T02261024  RH  019%=      5-min Rain = 0
KSP2 182013Z 05003KT 23/M03 A2989 RMK A01 T02261027  RH  018%=      5-min Rain = 0
KSP2 182014Z 04004KT 23/M03 A2988 RMK A01 T02251025  RH  019%=      5-min Rain = 0
KSP2 182015Z 05002KT 23/M03 A2988 RMK A01 T02251026  RH  018%=      5-min Rain = 0
KSP2 182016Z 09002KT 23/M03 A2988 RMK A01 T02251025  RH  019%=      5-min Rain = 0
KSP2 182017Z 10003KT 23/M03 A2988 RMK A01 T02261025  RH  019%=      5-min Rain = 0
KSP2 182018Z 12002KT 23/M03 A2988 RMK A01 T02261026  RH  018%=      5-min Rain = 0
KSP2 182019Z 12001KT 23/M03 A2988 RMK A01 T02271025  RH  019%=      5-min Rain = 0
KSP2 182020Z 35001KT 23/M02 A2989 RMK A01 T02291024  RH  018%=      5-min Rain = 0
KSP2 182021Z 35002KT 23/M03 A2989 RMK A01 T02311026  RH  018%=      5-min Rain = 0
KSP2 182022Z 32003KT 23/M03 A2989 RMK A01 T02301026  RH  018%=      5-min Rain = 0
KSP2 182023Z 35004KT 23/M02 A2989 RMK A01 T02291023  RH  019%=      5-min Rain = 0
KSP2 182024Z 02005KT 23/M02 A2989 RMK A01 T02321022  RH  018%=      5-min Rain = 0
KSP2 182025Z 01004KT 23/M02 A2989 RMK A01 T02341024  RH  018%=      5-min Rain = 0
KSP2 182026Z 35002KT 23/M03 A2989 RMK A01 T02331028  RH  017%=      5-min Rain = 0
KSP2 182027Z 36002KT 23/M03 A2989 RMK A01 T02291029  RH  018%=      5-min Rain = 0
KSP2 182028Z 01001KT 23/M03 A2989 RMK A01 T02261030  RH  018%=      5-min Rain = 0
KSP2 182029Z 28001KT 23/M03 A2989 RMK A01 T02251027  RH  018%=      5-min Rain = 0
KSP2 182030Z 35004KT 23/M03 A2989 RMK A01 T02271028  RH  018%=      5-min Rain = 0
KSP2 182031Z 35003KT 23/M03 A2989 RMK A01 T02291029  RH  018%=      5-min Rain = 0
KSP2 182032Z 01003KT 23/M03 A2989 RMK A01 T02301029  RH  018%=      5-min Rain = 0
KSP2 182033Z 03005KT 23/M03 A2989 RMK A01 T02321029  RH  017%=      5-min Rain = 0
KSP2 182034Z 02004KT 23/M03 A2989 RMK A01 T02311030  RH  017%=      5-min Rain = 0
KSP2 182035Z 34005KT 23/M03 A2989 RMK A01 T02301029  RH  018%=      5-min Rain = 0
KSP2 182036Z 32006KT 23/M03 A2989 RMK A01 T02311030  RH  017%=      5-min Rain = 0
KSP2 182037Z 32006KT 23/M03 A2989 RMK A01 T02311031  RH  017%=      5-min Rain = 0
KSP2 182038Z 35004KT 23/M03 A2989 RMK A01 T02321030  RH  017%=      5-min Rain = 0
KSP2 182039Z 00003KT 23/M03 A2989 RMK A01 T02321032  RH  017%=      5-min Rain = 0
KSP2 182040Z 02004KT 23/M03 A2989 RMK A01 T02311031  RH  017%=      5-min Rain = 0
KSP2 182041Z 34005KT 23/M03 A2989 RMK A01 T02311031  RH  017%=      5-min Rain = 0
KSP2 182042Z 35006KT 23/M03 A2989 RMK A01 T02311032  RH  017%=      5-min Rain = 0
KSP2 182043Z 34004KT 23/M03 A2989 RMK A01 T02301032  RH  017%=      5-min Rain = 0
KSP2 182044Z 32006KT 23/M03 A2989 RMK A01 T02311032  RH  017%=      5-min Rain = 0
KSP2 182045Z 32006KT 23/M03 A2989 RMK A01 T02311031  RH  017%=      5-min Rain = 0
KSP2 182046Z 33005KT 23/M03 A2989 RMK A01 T02301032  RH  017%=      5-min Rain = 0
KSP2 182047Z 34005KT 23/M03 A2989 RMK A01 T02281033  RH  017%=      5-min Rain = 0
KSP2 182048Z 35003KT 23/M03 A2989 RMK A01 T02271032  RH  018%=      5-min Rain = 0
KSP2 182049Z 01002KT 23/M03 A2989 RMK A01 T02281030  RH  018%=      5-min Rain = 0
KSP2 182050Z 35003KT 23/M03 A2989 RMK A01 T02291030  RH  018%=      5-min Rain = 0
KSP2 182051Z 35004KT 23/M03 A2989 RMK A01 T02301029  RH  018%=      5-min Rain = 0
KSP2 182052Z 33006KT 23/M03 A2989 RMK A01 T02301029  RH  018%=      5-min Rain = 0
KSP2 182053Z 31004KT 23/M03 A2989 RMK A01 T02301029  RH  018%=      5-min Rain = 0
KSP2 182054Z 31005KT 23/M03 A2989 RMK A01 T02311027  RH  018%=      5-min Rain = 0
KSP2 182055Z 32005KT 23/M03 A2989 RMK A01 T02311028  RH  018%=      5-min Rain = 0
KSP2 182056Z 30005KT 23/M03 A2989 RMK A01 T02311027  RH  018%=      5-min Rain = 0
KSP2 182057Z 32006KT 23/M03 A2989 RMK A01 T02311026  RH  018%=      5-min Rain = 0
KSP2 182058Z 33005KT 23/M03 A2989 RMK A01 T02331025  RH  018%=      5-min Rain = 0
KSP2 182059Z 31004KT 23/M03 A2989 RMK A01 T02331027  RH  018%=      5-min Rain = 0
KSP2 182100Z 31004KT 23/M03 A2989 RMK A01 T02321026  RH  018%=      5-min Rain = 0
KSP2 182101Z 00004KT 23/M03 A2989 RMK A01 T02311025  RH  018%=      5-min Rain = 0
KSP2 182102Z 01006KT 23/M03 A2989 RMK A01 T02311025  RH  018%=      5-min Rain = 0
KSP2 182103Z 01004KT 23/M02 A2989 RMK A01 T02311024  RH  018%=      5-min Rain = 0
KSP2 182104Z 01004KT 23/M02 A2989 RMK A01 T02311024  RH  018%=      5-min Rain = 0
KSP2 182105Z 02004KT 23/M03 A2989 RMK A01 T02311025  RH  018%=      5-min Rain = 0
KSP2 182106Z 02005KT 23/M02 A2989 RMK A01 T02301023  RH  018%=      5-min Rain = 0
KSP2 182107Z 01005KT 23/M02 A2989 RMK A01 T02301023  RH  018%=      5-min Rain = 0
KSP2 182108Z 35003KT 23/M02 A2989 RMK A01 T02311023  RH  018%=      5-min Rain = 0
KSP2 182109Z 35002KT 23/M02 A2989 RMK A01 T02321023  RH  018%=      5-min Rain = 0
KSP2 182110Z 36002KT 23/M02 A2989 RMK A01 T02321024  RH  018%=      5-min Rain = 0
KSP2 182111Z 32004KT 23/M02 A2989 RMK A01 T02321022  RH  018%=      5-min Rain = 0
KSP2 182112Z 31003KT 23/M02 A2989 RMK A01 T02321024  RH  018%=      5-min Rain = 0
KSP2 182113Z 36003KT 23/M02 A2989 RMK A01 T02321024  RH  018%=      5-min Rain = 0
KSP2 182114Z 33002KT 23/M03 A2989 RMK A01 T02321025  RH  018%=      5-min Rain = 0
KSP2 182115Z 35001KT 23/M02 A2989 RMK A01 T02321023  RH  018%=      5-min Rain = 0
KSP2 182116Z 02002KT 23/M03 A2989 RMK A01 T02321025  RH  018%=      5-min Rain = 0
KSP2 182117Z 35001KT 23/M03 A2989 RMK A01 T02321025  RH  018%=      5-min Rain = 0
KSP2 182118Z 31000KT 23/M03 A2989 RMK A01 T02311026  RH  018%=      5-min Rain = 0
KSP2 182119Z 29001KT 23/M03 A2989 RMK A01 T02321026  RH  018%=      5-min Rain = 0
KSP2 182120Z 29001KT 23/M03 A2989 RMK A01 T02321026  RH  018%=      5-min Rain = 0
KSP2 182121Z 26001KT 23/M03 A2989 RMK A01 T02321026  RH  018%=      5-min Rain = 0
KSP2 182122Z 10003KT 24/M02 A2989 RMK A01 T02351024  RH  018%=      5-min Rain = 0
KSP2 182123Z 08004KT 24/M02 A2989 RMK A01 T02371023  RH  018%=      5-min Rain = 0
KSP2 182124Z 09003KT 24/M03 A2989 RMK A01 T02381025  RH  017%=      5-min Rain = 0
KSP2 182125Z 09002KT 24/M03 A2989 RMK A01 T02361026  RH  017%=      5-min Rain = 0
KSP2 182126Z 07003KT 24/M03 A2989 RMK A01 T02351026  RH  017%=      5-min Rain = 0
KSP2 182127Z 04003KT 23/M03 A2989 RMK A01 T02331026  RH  018%=      5-min Rain = 0
KSP2 182128Z 00003KT 23/M03 A2989 RMK A01 T02331027  RH  018%=      5-min Rain = 0
KSP2 182129Z 00002KT 23/M03 A2989 RMK A01 T02321028  RH  018%=      5-min Rain = 0
KSP2 182130Z 34001KT 23/M03 A2989 RMK A01 T02311028  RH  018%=      5-min Rain = 0
KSP2 182131Z 15001KT 23/M03 A2989 RMK A01 T02311027  RH  018%=      5-min Rain = 0
KSP2 182132Z 16002KT 23/M03 A2989 RMK A01 T02331025  RH  018%=      5-min Rain = 0
KSP2 182133Z 14001KT 24/M03 A2989 RMK A01 T02361025  RH  018%=      5-min Rain = 0
KSP2 182134Z 13001KT 24/M03 A2989 RMK A01 T02381027  RH  017%=      5-min Rain = 0
KSP2 182135Z 17000KT 24/M03 A2989 RMK A01 T02381026  RH  017%=      5-min Rain = 0
KSP2 182136Z 04002KT 24/M02 A2989 RMK A01 T02401024  RH  017%=      5-min Rain = 0
KSP2 182137Z 36004KT 24/M02 A2989 RMK A01 T02401023  RH  017%=      5-min Rain = 0
KSP2 182138Z 31003KT 24/M02 A299 RMK A01 T02401022  RH  017%=      5-min Rain = 0
KSP2 182139Z 02002KT 24/M02 A299 RMK A01 T02411023  RH  017%=      5-min Rain = 0
KSP2 182140Z 36001KT 24/M03 A299 RMK A01 T02421025  RH  017%=      5-min Rain = 0
KSP2 182141Z 32002KT 24/M02 A299 RMK A01 T02411024  RH  017%=      5-min Rain = 0
KSP2 182142Z 34001KT 24/M02 A2989 RMK A01 T02411023  RH  017%=      5-min Rain = 0
KSP2 182143Z 01004KT 24/M03 A2989 RMK A01 T02401025  RH  017%=      5-min Rain = 0
KSP2 182144Z 01003KT 24/M03 A2989 RMK A01 T02391028  RH  017%=      5-min Rain = 0
KSP2 182145Z 01003KT 24/M03 A2989 RMK A01 T02361028  RH  017%=      5-min Rain = 0
KSP2 182146Z 01002KT 24/M03 A2989 RMK A01 T02351028  RH  017%=      5-min Rain = 0
KSP2 182147Z 02003KT 24/M03 A2989 RMK A01 T02351026  RH  017%=      5-min Rain = 0
KSP2 182148Z 02002KT 24/M03 A2989 RMK A01 T02351028  RH  017%=      5-min Rain = 0
KSP2 182149Z 06004KT 23/M03 A2989 RMK A01 T02341026  RH  018%=      5-min Rain = 0
KSP2 182150Z 06003KT 23/M03 A2989 RMK A01 T02331026  RH  018%=      5-min Rain = 0
KSP2 182151Z 06003KT 23/M02 A2989 RMK A01 T02331024  RH  018%=      5-min Rain = 0
KSP2 182152Z 05002KT 23/M03 A2989 RMK A01 T02331026  RH  018%=      5-min Rain = 0
KSP2 182153Z 00001KT 23/M03 A2989 RMK A01 T02331025  RH  018%=      5-min Rain = 0
KSP2 182154Z 01001KT 23/M03 A2989 RMK A01 T02331026  RH  018%=      5-min Rain = 0
KSP2 182155Z 02001KT 23/M03 A2989 RMK A01 T02331026  RH  018%=      5-min Rain = 0
KSP2 182156Z 03000KT 23/M03 A299 RMK A01 T02341026  RH  018%=      5-min Rain = 0
KSP2 182157Z 00000KT 24/M03 A299 RMK A01 T02351025  RH  018%=      5-min Rain = 0
KSP2 182158Z 34001KT 24/M02 A299 RMK A01 T02361023  RH  018%=      5-min Rain = 0
KSP2 182159Z 34001KT 24/M02 A299 RMK A01 T02371022  RH  018%=      5-min Rain = 0
KSP2 182200Z 04001KT 24/M03 A299 RMK A01 T02381025  RH  017%=      5-min Rain = 0
KSP2 182201Z 04001KT 24/M03 A299 RMK A01 T02381025  RH  017%=      5-min Rain = 0
KSP2 182202Z 05002KT 24/M03 A299 RMK A01 T02371025  RH  017%=      5-min Rain = 0
KSP2 182203Z 05004KT 24/M02 A299 RMK A01 T02371024  RH  018%=      5-min Rain = 0
KSP2 182204Z 05004KT 24/M02 A299 RMK A01 T02361024  RH  018%=      5-min Rain = 0
KSP2 182205Z 05003KT 24/M02 A299 RMK A01 T02361024  RH  018%=      5-min Rain = 0
KSP2 182206Z 03003KT 24/M02 A299 RMK A01 T02351024  RH  018%=      5-min Rain = 0
KSP2 182207Z 06004KT 24/M02 A299 RMK A01 T02351023  RH  018%=      5-min Rain = 0
KSP2 182208Z 06006KT 24/M02 A299 RMK A01 T02351023  RH  018%=      5-min Rain = 0
KSP2 182209Z 07005KT 24/M02 A299 RMK A01 T02351024  RH  018%=      5-min Rain = 0
KSP2 182210Z 06004KT 23/M03 A299 RMK A01 T02341025  RH  018%=      5-min Rain = 0
KSP2 182211Z 05002KT 23/M03 A299 RMK A01 T02331025  RH  018%=      5-min Rain = 0
KSP2 182212Z 06003KT 23/M03 A299 RMK A01 T02331026  RH  018%=      5-min Rain = 0
KSP2 182213Z 08003KT 23/M03 A299 RMK A01 T02331025  RH  018%=      5-min Rain = 0
KSP2 182214Z 10003KT 23/M03 A299 RMK A01 T02331025  RH  018%=      5-min Rain = 0
KSP2 182215Z 11003KT 23/M03 A299 RMK A01 T02331025  RH  018%=      5-min Rain = 0
KSP2 182216Z 08004KT 23/M03 A299 RMK A01 T02331026  RH  018%=      5-min Rain = 0
KSP2 182217Z 05005KT 23/M03 A299 RMK A01 T02331025  RH  018%=      5-min Rain = 0
KSP2 182218Z 07003KT 23/M03 A299 RMK A01 T02321025  RH  018%=      5-min Rain = 0
KSP2 182219Z 08003KT 23/M03 A299 RMK A01 T02321026  RH  018%=      5-min Rain = 0
KSP2 182220Z 07004KT 23/M03 A299 RMK A01 T02311025  RH  018%=      5-min Rain = 0
KSP2 182221Z 08005KT 23/M03 A299 RMK A01 T02321025  RH  018%=      5-min Rain = 0
KSP2 182222Z 08004KT 23/M03 A299 RMK A01 T02311025  RH  018%=      5-min Rain = 0
KSP2 182223Z 07003KT 23/M03 A299 RMK A01 T02311025  RH  018%=      5-min Rain = 0
KSP2 182224Z 05004KT 23/M02 A299 RMK A01 T02311023  RH  018%=      5-min Rain = 0
KSP2 182225Z 05006KT 23/M03 A299 RMK A01 T02311025  RH  018%=      5-min Rain = 0
KSP2 182226Z 06005KT 23/M03 A299 RMK A01 T02311025  RH  018%=      5-min Rain = 0
KSP2 182227Z 06005KT 23/M03 A299 RMK A01 T02301025  RH  018%=      5-min Rain = 0
KSP2 182228Z 07005KT 23/M03 A299 RMK A01 T02291026  RH  018%=      5-min Rain = 0
KSP2 182229Z 06006KT 23/M03 A299 RMK A01 T02281025  RH  018%=      5-min Rain = 0
KSP2 182230Z 05005KT 23/M02 A299 RMK A01 T02281023  RH  019%=      5-min Rain = 0
KSP2 182231Z 06006KT 23/M02 A299 RMK A01 T02281021  RH  019%=      5-min Rain = 0
KSP2 182232Z 05005KT 23/M02 A299 RMK A01 T02271020  RH  019%=      5-min Rain = 0
KSP2 182233Z 05006KT 23/M02 A299 RMK A01 T02271019  RH  019%=      5-min Rain = 0
KSP2 182234Z 04004KT 23/M02 A299 RMK A01 T02261019  RH  019%=      5-min Rain = 0
KSP2 182235Z 04005KT 23/M02 A299 RMK A01 T02261019  RH  019%=      5-min Rain = 0
KSP2 182236Z 04005KT 23/M02 A299 RMK A01 T02251020  RH  019%=      5-min Rain = 0
KSP2 182237Z 04006KT 23/M02 A299 RMK A01 T02251021  RH  019%=      5-min Rain = 0
KSP2 182238Z 04005KT 22/M02 A299 RMK A01 T02241021  RH  019%=      5-min Rain = 0
KSP2 182239Z 05004KT 22/M02 A299 RMK A01 T02241021  RH  019%=      5-min Rain = 0
KSP2 182240Z 05005KT 22/M02 A299 RMK A01 T02231021  RH  019%=      5-min Rain = 0
KSP2 182241Z 05005KT 22/M02 A299 RMK A01 T02231021  RH  019%=      5-min Rain = 0
KSP2 182242Z 05004KT 22/M02 A299 RMK A01 T02231019  RH  020%=      5-min Rain = 0
KSP2 182243Z 05005KT 22/M02 A299 RMK A01 T02231020  RH  020%=      5-min Rain = 0
KSP2 182244Z 05006KT 22/M02 A299 RMK A01 T02221019  RH  020%=      5-min Rain = 0
KSP2 182245Z 05005KT 22/M02 A299 RMK A01 T02221019  RH  020%=      5-min Rain = 0
KSP2 182246Z 06006KT 22/M02 A299 RMK A01 T02211019  RH  020%=      5-min Rain = 0
KSP2 182247Z 06006KT 22/M02 A299 RMK A01 T02201020  RH  020%=      5-min Rain = 0
KSP2 182248Z 07006KT 22/M02 A299 RMK A01 T02191020  RH  020%=      5-min Rain = 0
KSP2 182249Z 06006KT 22/M02 A299 RMK A01 T02191020  RH  020%=      5-min Rain = 0
KSP2 182250Z 06006KT 22/M02 A299 RMK A01 T02191020  RH  020%=      5-min Rain = 0
KSP2 182251Z 06006KT 22/M02 A299 RMK A01 T02181020  RH  020%=      5-min Rain = 0
KSP2 182252Z 06005KT 22/M02 A299 RMK A01 T02181018  RH  021%=      5-min Rain = 0
KSP2 182253Z 05005KT 22/M02 A299 RMK A01 T02171018  RH  021%=      5-min Rain = 0
KSP2 182254Z 06006KT 22/M02 A299 RMK A01 T02171018  RH  021%=      5-min Rain = 0
KSP2 182255Z 06005KT 22/M02 A299 RMK A01 T02161018  RH  021%=      5-min Rain = 0
KSP2 182256Z 06005KT 22/M02 A299 RMK A01 T02151018  RH  021%=      5-min Rain = 0
KSP2 182257Z 06005KT 22/M02 A299 RMK A01 T02151018  RH  021%=      5-min Rain = 0
KSP2 182258Z 06005KT 21/M02 A299 RMK A01 T02141018  RH  021%=      5-min Rain = 0
KSP2 182259Z 06005KT 21/M02 A299 RMK A01 T02131018  RH  021%=      5-min Rain = 0
KSP2 182300Z 06005KT 21/M02 A299 RMK A01 T02131019  RH  021%=      5-min Rain = 0
KSP2 182301Z 06005KT 21/M02 A299 RMK A01 T02121019  RH  021%=      5-min Rain = 0
KSP2 182302Z 06005KT 21/M02 A2991 RMK A01 T02111019  RH  021%=      5-min Rain = 0
KSP2 182303Z 06005KT 21/M02 A2991 RMK A01 T02111019  RH  021%=      5-min Rain = 0
KSP2 182304Z 06005KT 21/M02 A2991 RMK A01 T02101019  RH  021%=      5-min Rain = 0
KSP2 182305Z 06005KT 21/M02 A2991 RMK A01 T02091019  RH  022%=      5-min Rain = 0
KSP2 182306Z 06005KT 21/M02 A2991 RMK A01 T02081019  RH  022%=      5-min Rain = 0
KSP2 182307Z 07005KT 21/M02 A2991 RMK A01 T02071018  RH  022%=      5-min Rain = 0
KSP2 182308Z 07005KT 21/M02 A2991 RMK A01 T02061018  RH  022%=      5-min Rain = 0
KSP2 182309Z 07005KT 21/M02 A2991 RMK A01 T02051019  RH  022%=      5-min Rain = 0
KSP2 182310Z 07005KT 20/M02 A2991 RMK A01 T02041018  RH  022%=      5-min Rain = 0
KSP2 182311Z 07005KT 20/M02 A2991 RMK A01 T02031019  RH  022%=      5-min Rain = 0
KSP2 182312Z 07005KT 20/M02 A2991 RMK A01 T02021019  RH  023%=      5-min Rain = 0
KSP2 182313Z 07004KT 20/M02 A2991 RMK A01 T02011018  RH  023%=      5-min Rain = 0
KSP2 182314Z 07004KT 20/M02 A2991 RMK A01 T02001019  RH  023%=      5-min Rain = 0
KSP2 182315Z 07004KT 20/M02 A2991 RMK A01 T01991018  RH  023%=      5-min Rain = 0
KSP2 182316Z 07004KT 20/M02 A2991 RMK A01 T01981018  RH  023%=      5-min Rain = 0
KSP2 182317Z 07004KT 20/M02 A2991 RMK A01 T01971019  RH  023%=      5-min Rain = 0
KSP2 182318Z 07004KT 20/M02 A2991 RMK A01 T01961019  RH  023%=      5-min Rain = 0
KSP2 182319Z 07004KT 19/M02 A2991 RMK A01 T01941019  RH  024%=      5-min Rain = 0
KSP2 182320Z 07004KT 19/M02 A2991 RMK A01 T01931019  RH  024%=      5-min Rain = 0
KSP2 182321Z 07004KT 19/M02 A2991 RMK A01 T01921019  RH  024%=      5-min Rain = 0
KSP2 182322Z 07004KT 19/M02 A2991 RMK A01 T01901019  RH  024%=      5-min Rain = 0
KSP2 182323Z 06004KT 19/M02 A2991 RMK A01 T01891019  RH  024%=      5-min Rain = 0
KSP2 182324Z 07004KT 19/M02 A2991 RMK A01 T01881020  RH  024%=      5-min Rain = 0
KSP2 182325Z 07004KT 19/M02 A2991 RMK A01 T01861021  RH  024%=      5-min Rain = 0
KSP2 182326Z 08005KT 19/M02 A2991 RMK A01 T01851021  RH  025%=      5-min Rain = 0
KSP2 182327Z 08005KT 18/M02 A2992 RMK A01 T01831021  RH  025%=      5-min Rain = 0
KSP2 182328Z 08004KT 18/M02 A2992 RMK A01 T01811021  RH  025%=      5-min Rain = 0
KSP2 182329Z 08004KT 18/M02 A2992 RMK A01 T01791021  RH  026%=      5-min Rain = 0
KSP2 182330Z 08003KT 18/M02 A2992 RMK A01 T01771021  RH  026%=      5-min Rain = 0
KSP2 182331Z 09003KT 18/M02 A2992 RMK A01 T01751021  RH  026%=      5-min Rain = 0
KSP2 182332Z 09004KT 17/M02 A2992 RMK A01 T01741021  RH  027%=      5-min Rain = 0
KSP2 182333Z 09004KT 17/M02 A2992 RMK A01 T01721020  RH  027%=      5-min Rain = 0
KSP2 182334Z 09004KT 17/M02 A2992 RMK A01 T01721019  RH  027%=      5-min Rain = 0
KSP2 182335Z 08004KT 17/M02 A2992 RMK A01 T01711020  RH  027%=      5-min Rain = 0
KSP2 182336Z 08004KT 17/M02 A2992 RMK A01 T01701020  RH  027%=      5-min Rain = 0
KSP2 182337Z 08005KT 17/M02 A2992 RMK A01 T01681021  RH  027%=      5-min Rain = 0
KSP2 182338Z 08004KT 17/M02 A2992 RMK A01 T01651022  RH  028%=      5-min Rain = 0
KSP2 182339Z 07004KT 16/M02 A2992 RMK A01 T01631021  RH  028%=      5-min Rain = 0
KSP2 182340Z 07004KT 16/M02 A2992 RMK A01 T01621021  RH  029%=      5-min Rain = 0
KSP2 182341Z 07004KT 16/M02 A2992 RMK A01 T01601021  RH  029%=      5-min Rain = 0
KSP2 182342Z 07004KT 16/M02 A2992 RMK A01 T01591020  RH  029%=      5-min Rain = 0
KSP2 182343Z 07004KT 16/M02 A2992 RMK A01 T01581020  RH  029%=      5-min Rain = 0
KSP2 182344Z 07004KT 16/M02 A2992 RMK A01 T01571020  RH  030%=      5-min Rain = 0
KSP2 182345Z 06003KT 16/M02 A2992 RMK A01 T01571021  RH  030%=      5-min Rain = 0
KSP2 182346Z 06004KT 16/M02 A2992 RMK A01 T01561021  RH  030%=      5-min Rain = 0
KSP2 182347Z 06004KT 16/M02 A2992 RMK A01 T01561021  RH  030%=      5-min Rain = 0
KSP2 182348Z 07005KT 16/M02 A2992 RMK A01 T01561021  RH  030%=      5-min Rain = 0
KSP2 182349Z 07005KT 16/M02 A2992 RMK A01 T01551021  RH  030%=      5-min Rain = 0
KSP2 182350Z 07005KT 15/M02 A2992 RMK A01 T01541022  RH  030%=      5-min Rain = 0
KSP2 182351Z 07005KT 15/M02 A2993 RMK A01 T01521022  RH  030%=      5-min Rain = 0
KSP2 182352Z 07004KT 15/M02 A2993 RMK A01 T01501023  RH  030%=      5-min Rain = 0
KSP2 182353Z 07004KT 15/M02 A2993 RMK A01 T01491022  RH  031%=      5-min Rain = 0
KSP2 182354Z 08004KT 15/M02 A2993 RMK A01 T01471023  RH  031%=      5-min Rain = 0
KSP2 182355Z 08004KT 15/M02 A2993 RMK A01 T01461023  RH  031%=      5-min Rain = 0
KSP2 182356Z 08004KT 14/M02 A2993 RMK A01 T01441024  RH  031%=      5-min Rain = 0
KSP2 182357Z 08004KT 14/M02 A2993 RMK A01 T01421023  RH  032%=      5-min Rain = 0
KSP2 182358Z 07004KT 14/M02 A2993 RMK A01 T01411023  RH  032%=      5-min Rain = 0
KSP2 182359Z 07004KT 14/M02 A2993 RMK A01 T01391023  RH  032%=      5-min Rain = 0
KSP2 190000Z 07004KT 14/M02 A2993 RMK A01 T01391023  RH  033%=      5-min Rain = 0
KSP2 190001Z 07004KT 14/M02 A2993 RMK A01 T01391023  RH  032%=      5-min Rain = 0
KSP2 190002Z 07004KT 14/M02 A2993 RMK A01 T01411022  RH  032%=      5-min Rain = 0
KSP2 190003Z 07003KT 14/M02 A2993 RMK A01 T01421021  RH  032%=      5-min Rain = 0
KSP2 190004Z 07003KT 14/M02 A2993 RMK A01 T01431022  RH  032%=      5-min Rain = 0
KSP2 190005Z 06003KT 15/M02 A2993 RMK A01 T01451022  RH  032%=      5-min Rain = 0
KSP2 190006Z 06003KT 15/M02 A2993 RMK A01 T01461022  RH  031%=      5-min Rain = 0
KSP2 190007Z 06003KT 15/M02 A2993 RMK A01 T01471022  RH  031%=      5-min Rain = 0
KSP2 190008Z 05003KT 15/M02 A2993 RMK A01 T01471022  RH  031%=      5-min Rain = 0
KSP2 190009Z 06003KT 15/M02 A2993 RMK A01 T01481022  RH  031%=      5-min Rain = 0
KSP2 190010Z 06003KT 15/M02 A2993 RMK A01 T01491022  RH  031%=      5-min Rain = 0
KSP2 190011Z 05003KT 15/M02 A2993 RMK A01 T01491022  RH  031%=      5-min Rain = 0
KSP2 190012Z 05004KT 15/M02 A2993 RMK A01 T01491022  RH  031%=      5-min Rain = 0
KSP2 190013Z 06004KT 15/M02 A2993 RMK A01 T01471023  RH  031%=      5-min Rain = 0
KSP2 190014Z 05004KT 15/M02 A2993 RMK A01 T01461023  RH  031%=      5-min Rain = 0
KSP2 190015Z 05004KT 15/M02 A2993 RMK A01 T01451023  RH  031%=      5-min Rain = 0
KSP2 190016Z 05004KT 15/M02 A2993 RMK A01 T01451023  RH  031%=      5-min Rain = 0
KSP2 190017Z 06004KT 15/M02 A2993 RMK A01 T01451024  RH  031%=      5-min Rain = 0
KSP2 190018Z 06004KT 15/M02 A2993 RMK A01 T01461023  RH  031%=      5-min Rain = 0
KSP2 190019Z 06003KT 15/M02 A2993 RMK A01 T01471023  RH  031%=      5-min Rain = 0
KSP2 190020Z 07003KT 15/M02 A2993 RMK A01 T01471023  RH  031%=      5-min Rain = 0
KSP2 190021Z 07003KT 15/M02 A2993 RMK A01 T01451023  RH  031%=      5-min Rain = 0
KSP2 190022Z 07003KT 14/M02 A2993 RMK A01 T01431024  RH  032%=      5-min Rain = 0
KSP2 190023Z 06004KT 14/M03 A2993 RMK A01 T01411025  RH  032%=      5-min Rain = 0
KSP2 190024Z 07004KT 14/M03 A2993 RMK A01 T01401025  RH  032%=      5-min Rain = 0
KSP2 190025Z 06003KT 14/M03 A2994 RMK A01 T01391025  RH  032%=      5-min Rain = 0
KSP2 190026Z 06003KT 14/M03 A2994 RMK A01 T01391025  RH  032%=      5-min Rain = 0
KSP2 190027Z 06002KT 14/M03 A2994 RMK A01 T01391025  RH  032%=      5-min Rain = 0
KSP2 190028Z 06002KT 14/M03 A2994 RMK A01 T01391026  RH  032%=      5-min Rain = 0
KSP2 190029Z 06002KT 14/M03 A2994 RMK A01 T01401025  RH  032%=      5-min Rain = 0
KSP2 190030Z 06002KT 14/M02 A2994 RMK A01 T01391024  RH  032%=      5-min Rain = 0
KSP2 190031Z 05001KT 14/M02 A2994 RMK A01 T01361023  RH  033%=      5-min Rain = 0
KSP2 190032Z 04001KT 13/M02 A2994 RMK A01 T01341023  RH  034%=      5-min Rain = 0
KSP2 190033Z 05001KT 13/M02 A2994 RMK A01 T01321022  RH  034%=      5-min Rain = 0
KSP2 190034Z 06001KT 13/M02 A2994 RMK A01 T01311022  RH  035%=      5-min Rain = 0
KSP2 190035Z 06001KT 13/M02 A2994 RMK A01 T01291022  RH  035%=      5-min Rain = 0
KSP2 190036Z 06001KT 13/M02 A2995 RMK A01 T01281022  RH  035%=      5-min Rain = 0
KSP2 190037Z 06000KT 13/M02 A2995 RMK A01 T01281022  RH  035%=      5-min Rain = 0
KSP2 190038Z 00000KT 13/M02 A2995 RMK A01 T01261023  RH  035%=      5-min Rain = 0
KSP2 190039Z 00000KT 13/M02 A2995 RMK A01 T01251023  RH  036%=      5-min Rain = 0
KSP2 190040Z 00000KT 12/M02 A2995 RMK A01 T01241023  RH  036%=      5-min Rain = 0
KSP2 190041Z 00000KT 12/M02 A2995 RMK A01 T01241023  RH  036%=      5-min Rain = 0
KSP2 190042Z 00000KT 12/M02 A2995 RMK A01 T01241023  RH  036%=      5-min Rain = 0
KSP2 190043Z 00000KT 12/M02 A2995 RMK A01 T01241023  RH  036%=      5-min Rain = 0
KSP2 190044Z 00000KT 12/M02 A2995 RMK A01 T01241023  RH  036%=      5-min Rain = 0
KSP2 190045Z 00000KT 12/M02 A2995 RMK A01 T01221024  RH  036%=      5-min Rain = 0
KSP2 190046Z 00000KT 12/M03 A2995 RMK A01 T01201025  RH  036%=      5-min Rain = 0
KSP2 190047Z 00000KT 12/M03 A2995 RMK A01 T01181026  RH  037%=      5-min Rain = 0
KSP2 190048Z 00000KT 12/M03 A2995 RMK A01 T01151026  RH  037%=      5-min Rain = 0
KSP2 190049Z 00000KT 11/M03 A2995 RMK A01 T01141025  RH  038%=      5-min Rain = 0
KSP2 190050Z 00000KT 11/M03 A2995 RMK A01 T01121026  RH  038%=      5-min Rain = 0
KSP2 190051Z 00000KT 11/M03 A2995 RMK A01 T01091027  RH  038%=      5-min Rain = 0
KSP2 190052Z 00000KT 11/M03 A2995 RMK A01 T01071026  RH  039%=      5-min Rain = 0
KSP2 190053Z 00000KT 11/M03 A2995 RMK A01 T01061027  RH  039%=      5-min Rain = 0
KSP2 190054Z 00000KT 11/M03 A2995 RMK A01 T01051026  RH  040%=      5-min Rain = 0
KSP2 190055Z 00000KT 11/M03 A2995 RMK A01 T01051026  RH  040%=      5-min Rain = 0
KSP2 190056Z 00000KT 11/M03 A2995 RMK A01 T01051025  RH  040%=      5-min Rain = 0
KSP2 190057Z 00000KT 10/M03 A2996 RMK A01 T01041025  RH  040%=      5-min Rain = 0
KSP2 190058Z 00000KT 10/M03 A2996 RMK A01 T01031026  RH  040%=      5-min Rain = 0
KSP2 190059Z 00000KT 10/M03 A2996 RMK A01 T01021025  RH  041%=      5-min Rain = 0
KSP2 190100Z 00000KT 10/M03 A2996 RMK A01 T00991026  RH  041%=      5-min Rain = 0
KSP2 190101Z 00000KT 09/M03 A2996 RMK A01 T00941027  RH  043%=      5-min Rain = 0
KSP2 190102Z 00000KT 09/M03 A2996 RMK A01 T00911027  RH  043%=      5-min Rain = 0
KSP2 190103Z 00000KT 09/M03 A2996 RMK A01 T00881026  RH  045%=      5-min Rain = 0
KSP2 190104Z 00000KT 09/M02 A2996 RMK A01 T00871022  RH  046%=      5-min Rain = 0
KSP2 190105Z 00000KT 09/M02 A2996 RMK A01 T00861021  RH  047%=      5-min Rain = 0
KSP2 190106Z 00000KT 09/M02 A2996 RMK A01 T00861020  RH  048%=      5-min Rain = 0
KSP2 190107Z 00000KT 09/M02 A2996 RMK A01 T00851020  RH  048%=      5-min Rain = 0
KSP2 190108Z 00000KT 09/M02 A2996 RMK A01 T00851018  RH  048%=      5-min Rain = 0
KSP2 190109Z 00000KT 08/M02 A2996 RMK A01 T00841019  RH  048%=      5-min Rain = 0
KSP2 190110Z 06000KT 08/M02 A2996 RMK A01 T00831019  RH  049%=      5-min Rain = 0
KSP2 190111Z 06001KT 08/M02 A2996 RMK A01 T00811017  RH  050%=      5-min Rain = 0
KSP2 190112Z 06001KT 08/M02 A2996 RMK A01 T00791016  RH  051%=      5-min Rain = 0
KSP2 190113Z 06001KT 08/M02 A2996 RMK A01 T00781016  RH  051%=      5-min Rain = 0
KSP2 190114Z 06001KT 08/M01 A2996 RMK A01 T00771014  RH  053%=      5-min Rain = 0
KSP2 190115Z 13001KT 08/M02 A2996 RMK A01 T00751016  RH  053%=      5-min Rain = 0
KSP2 190116Z 22001KT 07/M02 A2996 RMK A01 T00731016  RH  053%=      5-min Rain = 0
KSP2 190117Z 22001KT 07/M02 A2996 RMK A01 T00721017  RH  053%=      5-min Rain = 0
KSP2 190118Z 22001KT 07/M02 A2996 RMK A01 T00721018  RH  053%=      5-min Rain = 0
KSP2 190119Z 23001KT 07/M02 A2996 RMK A01 T00731019  RH  052%=      5-min Rain = 0
KSP2 190120Z 23001KT 07/M02 A2996 RMK A01 T00741020  RH  051%=      5-min Rain = 0
KSP2 190121Z 23001KT 08/M02 A2996 RMK A01 T00751018  RH  052%=      5-min Rain = 0
KSP2 190122Z 23001KT 08/M02 A2996 RMK A01 T00761018  RH  051%=      5-min Rain = 0
KSP2 190123Z 23001KT 08/M02 A2996 RMK A01 T00761018  RH  051%=      5-min Rain = 0
KSP2 190124Z 24001KT 08/M02 A2996 RMK A01 T00771017  RH  052%=      5-min Rain = 0
KSP2 190125Z 25002KT 08/M02 A2996 RMK A01 T00771015  RH  052%=      5-min Rain = 0
KSP2 190126Z 25002KT 08/M01 A2996 RMK A01 T00771014  RH  053%=      5-min Rain = 0
KSP2 190127Z 25002KT 08/M01 A2996 RMK A01 T00761013  RH  053%=      5-min Rain = 0
KSP2 190128Z 25002KT 08/M01 A2997 RMK A01 T00751013  RH  054%=      5-min Rain = 0
KSP2 190129Z 24002KT 08/M01 A2997 RMK A01 T00751011  RH  054%=      5-min Rain = 0
KSP2 190130Z 23003KT 07/M01 A2997 RMK A01 T00741013  RH  054%=      5-min Rain = 0
KSP2 190131Z 22003KT 07/M01 A2997 RMK A01 T00741014  RH  054%=      5-min Rain = 0
KSP2 190132Z 22003KT 07/M02 A2997 RMK A01 T00721016  RH  054%=      5-min Rain = 0
KSP2 190133Z 22003KT 07/M02 A2997 RMK A01 T00701017  RH  054%=      5-min Rain = 0
KSP2 190134Z 23003KT 07/M02 A2997 RMK A01 T00681019  RH  054%=      5-min Rain = 0
KSP2 190135Z 22003KT 07/M02 A2997 RMK A01 T00681018  RH  054%=      5-min Rain = 0
KSP2 190136Z 22003KT 07/M02 A2997 RMK A01 T00661016  RH  056%=      5-min Rain = 0
KSP2 190137Z 22003KT 06/M02 A2997 RMK A01 T00641017  RH  056%=      5-min Rain = 0
KSP2 190138Z 21003KT 06/M02 A2997 RMK A01 T00631017  RH  057%=      5-min Rain = 0
KSP2 190139Z 22002KT 06/M02 A2997 RMK A01 T00631016  RH  057%=      5-min Rain = 0
KSP2 190140Z 23002KT 06/M02 A2997 RMK A01 T00631017  RH  057%=      5-min Rain = 0
KSP2 190141Z 24003KT 06/M02 A2997 RMK A01 T00641017  RH  056%=      5-min Rain = 0
KSP2 190142Z 25002KT 07/M02 A2997 RMK A01 T00651017  RH  056%=      5-min Rain = 0
KSP2 190143Z 26002KT 07/M02 A2997 RMK A01 T00651017  RH  056%=      5-min Rain = 0
KSP2 190144Z 25002KT 07/M02 A2997 RMK A01 T00661018  RH  055%=      5-min Rain = 0
KSP2 190145Z 23003KT 07/M02 A2997 RMK A01 T00681016  RH  055%=      5-min Rain = 0
KSP2 190146Z 23003KT 07/M01 A2997 RMK A01 T00691014  RH  055%=      5-min Rain = 0
KSP2 190147Z 23004KT 07/M01 A2997 RMK A01 T00701014  RH  055%=      5-min Rain = 0
KSP2 190148Z 22004KT 07/M02 A2997 RMK A01 T00721016  RH  054%=      5-min Rain = 0
KSP2 190149Z 22004KT 07/M02 A2997 RMK A01 T00721015  RH  054%=      5-min Rain = 0
KSP2 190150Z 20004KT 07/M01 A2997 RMK A01 T00721014  RH  054%=      5-min Rain = 0
KSP2 190151Z 21003KT 07/M02 A2997 RMK A01 T00691018  RH  054%=      5-min Rain = 0
KSP2 190152Z 22003KT 07/M02 A2997 RMK A01 T00681020  RH  053%=      5-min Rain = 0
KSP2 190153Z 23002KT 07/M02 A2997 RMK A01 T00691018  RH  054%=      5-min Rain = 0
KSP2 190154Z 22002KT 07/M02 A2997 RMK A01 T00691018  RH  054%=      5-min Rain = 0
KSP2 190155Z 22000KT 07/M02 A2997 RMK A01 T00691017  RH  054%=      5-min Rain = 0
KSP2 190156Z 28001KT 07/M01 A2997 RMK A01 T00691014  RH  056%=      5-min Rain = 0
KSP2 190157Z 31002KT 07/M02 A2997 RMK A01 T00671016  RH  055%=      5-min Rain = 0
KSP2 190158Z 31002KT 07/M02 A2997 RMK A01 T00661018  RH  055%=      5-min Rain = 0
KSP2 190159Z 31002KT 07/M02 A2997 RMK A01 T00671019  RH  054%=      5-min Rain = 0
KSP2 190200Z 29002KT 07/M02 A2997 RMK A01 T00671020  RH  054%=      5-min Rain = 0
KSP2 190201Z 27002KT 07/M02 A2997 RMK A01 T00681021  RH  053%=      5-min Rain = 0
KSP2 190202Z 26002KT 07/M02 A2997 RMK A01 T00681019  RH  054%=      5-min Rain = 0
KSP2 190203Z 25002KT 07/M02 A2997 RMK A01 T00681019  RH  054%=      5-min Rain = 0
KSP2 190204Z 25002KT 07/M02 A2997 RMK A01 T00671019  RH  054%=      5-min Rain = 0
KSP2 190205Z 24002KT 07/M02 A2997 RMK A01 T00681018  RH  054%=      5-min Rain = 0
KSP2 190206Z 23002KT 07/M02 A2997 RMK A01 T00691016  RH  055%=      5-min Rain = 0
KSP2 190207Z 23002KT 07/M02 A2997 RMK A01 T00701015  RH  055%=      5-min Rain = 0
KSP2 190208Z 23002KT 07/M02 A2997 RMK A01 T00701015  RH  055%=      5-min Rain = 0
KSP2 190209Z 24002KT 07/M02 A2997 RMK A01 T00681015  RH  055%=      5-min Rain = 0
KSP2 190210Z 25002KT 07/M01 A2997 RMK A01 T00661014  RH  056%=      5-min Rain = 0
KSP2 190211Z 26002KT 06/M02 A2997 RMK A01 T00641015  RH  057%=      5-min Rain = 0
KSP2 190212Z 28002KT 06/M02 A2997 RMK A01 T00631015  RH  058%=      5-min Rain = 0
KSP2 190213Z 32002KT 06/M02 A2997 RMK A01 T00621015  RH  058%=      5-min Rain = 0
KSP2 190214Z 34002KT 06/M02 A2997 RMK A01 T00621016  RH  058%=      5-min Rain = 0
KSP2 190215Z 34002KT 06/M02 A2997 RMK A01 T00621017  RH  057%=      5-min Rain = 0
KSP2 190216Z 30003KT 06/M02 A2997 RMK A01 T00621018  RH  057%=      5-min Rain = 0
KSP2 190217Z 28002KT 06/M02 A2997 RMK A01 T00611017  RH  057%=      5-min Rain = 0
KSP2 190218Z 27002KT 06/M02 A2997 RMK A01 T00611017  RH  057%=      5-min Rain = 0
KSP2 190219Z 26002KT 06/M02 A2997 RMK A01 T00611017  RH  057%=      5-min Rain = 0
KSP2 190220Z 26002KT 06/M02 A2997 RMK A01 T00611018  RH  057%=      5-min Rain = 0
KSP2 190221Z 27001KT 06/M02 A2997 RMK A01 T00591019  RH  057%=      5-min Rain = 0
KSP2 190222Z 29001KT 06/M02 A2997 RMK A01 T00571019  RH  058%=      5-min Rain = 0
KSP2 190223Z 30002KT 06/M02 A2997 RMK A01 T00561019  RH  059%=      5-min Rain = 0
KSP2 190224Z 27002KT 06/M02 A2997 RMK A01 T00551019  RH  059%=      5-min Rain = 0
KSP2 190225Z 25002KT 06/M02 A2997 RMK A01 T00551019  RH  059%=      5-min Rain = 0
KSP2 190226Z 25002KT 06/M02 A2997 RMK A01 T00561018  RH  059%=      5-min Rain = 0
KSP2 190227Z 24002KT 06/M02 A2997 RMK A01 T00571017  RH  059%=      5-min Rain = 0
KSP2 190228Z 25002KT 06/M02 A2997 RMK A01 T00561019  RH  058%=      5-min Rain = 0
KSP2 190229Z 25001KT 05/M02 A2997 RMK A01 T00541020  RH  059%=      5-min Rain = 0
KSP2 190230Z 28001KT 05/M02 A2997 RMK A01 T00531019  RH  060%=      5-min Rain = 0
KSP2 190231Z 28000KT 05/M02 A2997 RMK A01 T00521020  RH  060%=      5-min Rain = 0
KSP2 190232Z 00000KT 05/M02 A2997 RMK A01 T00501021  RH  060%=      5-min Rain = 0
KSP2 190233Z 00000KT 05/M02 A2997 RMK A01 T00511020  RH  060%=      5-min Rain = 0
KSP2 190234Z 35001KT 05/M02 A2997 RMK A01 T00521021  RH  059%=      5-min Rain = 0
KSP2 190235Z 33002KT 05/M02 A2997 RMK A01 T00521019  RH  060%=      5-min Rain = 0
KSP2 190236Z 33002KT 05/M02 A2997 RMK A01 T00541017  RH  060%=      5-min Rain = 0
KSP2 190237Z 33001KT 06/M02 A2997 RMK A01 T00551018  RH  059%=      5-min Rain = 0
KSP2 190238Z 32001KT 06/M02 A2997 RMK A01 T00551019  RH  059%=      5-min Rain = 0
KSP2 190239Z 32001KT 06/M02 A2997 RMK A01 T00551019  RH  059%=      5-min Rain = 0
KSP2 190240Z 27001KT 06/M02 A2997 RMK A01 T00551019  RH  059%=      5-min Rain = 0
KSP2 190241Z 26001KT 05/M02 A2997 RMK A01 T00541021  RH  059%=      5-min Rain = 0
KSP2 190242Z 22002KT 05/M02 A2997 RMK A01 T00501023  RH  059%=      5-min Rain = 0
KSP2 190243Z 22002KT 05/M02 A2998 RMK A01 T00471023  RH  061%=      5-min Rain = 0
KSP2 190244Z 22002KT 04/M02 A2998 RMK A01 T00441024  RH  061%=      5-min Rain = 0
KSP2 190245Z 21003KT 04/M02 A2998 RMK A01 T00421024  RH  062%=      5-min Rain = 0
KSP2 190246Z 21002KT 04/M02 A2998 RMK A01 T00401024  RH  063%=      5-min Rain = 0
KSP2 190247Z 21003KT 04/M02 A2998 RMK A01 T00391022  RH  064%=      5-min Rain = 0
KSP2 190248Z 22002KT 04/M02 A2998 RMK A01 T00401019  RH  066%=      5-min Rain = 0
KSP2 190249Z 22002KT 04/M01 A2998 RMK A01 T00421014  RH  067%=      5-min Rain = 0
KSP2 190250Z 23002KT 05/M01 A2998 RMK A01 T00451012  RH  066%=      5-min Rain = 0
KSP2 190251Z 22002KT 05/M01 A2998 RMK A01 T00471014  RH  065%=      5-min Rain = 0
KSP2 190252Z 23002KT 05/M02 A2998 RMK A01 T00491016  RH  063%=      5-min Rain = 0
KSP2 190253Z 24002KT 05/M02 A2998 RMK A01 T00501020  RH  061%=      5-min Rain = 0
KSP2 190254Z 23002KT 05/M02 A2998 RMK A01 T00501021  RH  060%=      5-min Rain = 0
KSP2 190255Z 23002KT 05/M02 A2998 RMK A01 T00501022  RH  060%=      5-min Rain = 0
KSP2 190256Z 24002KT 05/M02 A2998 RMK A01 T00501023  RH  059%=      5-min Rain = 0
KSP2 190257Z 24003KT 05/M02 A2998 RMK A01 T00501024  RH  059%=      5-min Rain = 0
KSP2 190258Z 24003KT 05/M02 A2998 RMK A01 T00511024  RH  058%=      5-min Rain = 0
KSP2 190259Z 25003KT 05/M02 A2998 RMK A01 T00511024  RH  059%=      5-min Rain = 0
KSP2 190300Z 25003KT 05/M02 A2998 RMK A01 T00511022  RH  059%=      5-min Rain = 0
KSP2 190301Z 25003KT 05/M02 A2998 RMK A01 T00511021  RH  060%=      5-min Rain = 0
KSP2 190302Z 25002KT 05/M02 A2998 RMK A01 T00511020  RH  060%=      5-min Rain = 0
KSP2 190303Z 26002KT 05/M02 A2998 RMK A01 T00511019  RH  061%=      5-min Rain = 0
KSP2 190304Z 27002KT 05/M02 A2998 RMK A01 T00511018  RH  061%=      5-min Rain = 0
KSP2 190305Z 28002KT 05/M02 A2998 RMK A01 T00501019  RH  061%=      5-min Rain = 0
KSP2 190306Z 28002KT 05/M02 A2998 RMK A01 T00511018  RH  061%=      5-min Rain = 0
KSP2 190307Z 28002KT 05/M02 A2998 RMK A01 T00501018  RH  061%=      5-min Rain = 0
KSP2 190308Z 28002KT 05/M02 A2998 RMK A01 T00501017  RH  062%=      5-min Rain = 0
KSP2 190309Z 27002KT 05/M02 A2998 RMK A01 T00491017  RH  062%=      5-min Rain = 0
KSP2 190310Z 28002KT 05/M02 A2998 RMK A01 T00491018  RH  062%=      5-min Rain = 0
KSP2 190311Z 28003KT 05/M02 A2998 RMK A01 T00481019  RH  062%=      5-min Rain = 0
KSP2 190312Z 28003KT 05/M02 A2998 RMK A01 T00481018  RH  062%=      5-min Rain = 0
KSP2 190313Z 27003KT 05/M02 A2998 RMK A01 T00481017  RH  063%=      5-min Rain = 0
KSP2 190314Z 27003KT 05/M02 A2998 RMK A01 T00481017  RH  063%=      5-min Rain = 0
KSP2 190315Z 27002KT 05/M02 A2998 RMK A01 T00491018  RH  062%=      5-min Rain = 0
KSP2 190316Z 27002KT 05/M02 A2998 RMK A01 T00491019  RH  061%=      5-min Rain = 0
KSP2 190317Z 27002KT 05/M02 A2998 RMK A01 T00481020  RH  062%=      5-min Rain = 0
KSP2 190318Z 27002KT 05/M02 A2998 RMK A01 T00471020  RH  062%=      5-min Rain = 0
KSP2 190319Z 27002KT 05/M02 A2998 RMK A01 T00461020  RH  063%=      5-min Rain = 0
KSP2 190320Z 27003KT 05/M02 A2998 RMK A01 T00461019  RH  063%=      5-min Rain = 0
KSP2 190321Z 27003KT 05/M02 A2998 RMK A01 T00461019  RH  062%=      5-min Rain = 0
KSP2 190322Z 26003KT 05/M02 A2998 RMK A01 T00471020  RH  062%=      5-min Rain = 0
KSP2 190323Z 26004KT 05/M02 A2998 RMK A01 T00471020  RH  062%=      5-min Rain = 0
KSP2 190324Z 27003KT 05/M02 A2998 RMK A01 T00481019  RH  062%=      5-min Rain = 0
KSP2 190325Z 27003KT 05/M02 A2998 RMK A01 T00491019  RH  061%=      5-min Rain = 0
KSP2 190326Z 27003KT 05/M02 A2998 RMK A01 T00511019  RH  060%=      5-min Rain = 0
KSP2 190327Z 27003KT 05/M02 A2998 RMK A01 T00521021  RH  060%=      5-min Rain = 0
KSP2 190328Z 27003KT 05/M02 A2998 RMK A01 T00521022  RH  059%=      5-min Rain = 0
KSP2 190329Z 27003KT 05/M02 A2998 RMK A01 T00521023  RH  058%=      5-min Rain = 0
KSP2 190330Z 26003KT 05/M02 A2998 RMK A01 T00521024  RH  058%=      5-min Rain = 0
KSP2 190331Z 26003KT 05/M02 A2998 RMK A01 T00531024  RH  057%=      5-min Rain = 0
KSP2 190332Z 26003KT 05/M03 A2998 RMK A01 T00531025  RH  057%=      5-min Rain = 0
KSP2 190333Z 27003KT 05/M02 A2998 RMK A01 T00541024  RH  057%=      5-min Rain = 0
KSP2 190334Z 27002KT 05/M02 A2998 RMK A01 T00541024  RH  057%=      5-min Rain = 0
KSP2 190335Z 27002KT 05/M02 A2998 RMK A01 T00541023  RH  057%=      5-min Rain = 0
KSP2 190336Z 28002KT 05/M02 A2998 RMK A01 T00541024  RH  057%=      5-min Rain = 0
KSP2 190337Z 28002KT 05/M02 A2998 RMK A01 T00541020  RH  059%=      5-min Rain = 0
KSP2 190338Z 28002KT 05/M02 A2998 RMK A01 T00541017  RH  060%=      5-min Rain = 0
KSP2 190339Z 28003KT 05/M02 A2998 RMK A01 T00541015  RH  061%=      5-min Rain = 0
KSP2 190340Z 28002KT 06/M02 A2998 RMK A01 T00551015  RH  061%=      5-min Rain = 0
KSP2 190341Z 29002KT 05/M02 A2998 RMK A01 T00541015  RH  061%=      5-min Rain = 0
KSP2 190342Z 29002KT 05/M01 A2998 RMK A01 T00541014  RH  061%=      5-min Rain = 0
KSP2 190343Z 27001KT 05/M01 A2998 RMK A01 T00541014  RH  062%=      5-min Rain = 0
KSP2 190344Z 28003KT 05/M02 A2998 RMK A01 T00531015  RH  062%=      5-min Rain = 0
KSP2 190345Z 28002KT 05/M02 A2998 RMK A01 T00531015  RH  062%=      5-min Rain = 0
KSP2 190346Z 28002KT 05/M02 A2998 RMK A01 T00521015  RH  062%=      5-min Rain = 0
KSP2 190347Z 28002KT 05/M02 A2998 RMK A01 T00521017  RH  061%=      5-min Rain = 0
KSP2 190348Z 26002KT 05/M02 A2998 RMK A01 T00521017  RH  061%=      5-min Rain = 0
KSP2 190349Z 27002KT 05/M02 A2998 RMK A01 T00511016  RH  062%=      5-min Rain = 0
KSP2 190350Z 26003KT 05/M02 A2998 RMK A01 T00501018  RH  061%=      5-min Rain = 0
KSP2 190351Z 25004KT 05/M02 A2998 RMK A01 T00501017  RH  062%=      5-min Rain = 0
KSP2 190352Z 25004KT 05/M02 A2998 RMK A01 T00501016  RH  062%=      5-min Rain = 0
KSP2 190353Z 25003KT 05/M02 A2998 RMK A01 T00491018  RH  062%=      5-min Rain = 0
KSP2 190354Z 25003KT 05/M02 A2998 RMK A01 T00461019  RH  062%=      5-min Rain = 0
KSP2 190355Z 25003KT 05/M02 A2998 RMK A01 T00451019  RH  063%=      5-min Rain = 0
KSP2 190356Z 25003KT 04/M02 A2998 RMK A01 T00441020  RH  063%=      5-min Rain = 0
KSP2 190357Z 25003KT 04/M02 A2998 RMK A01 T00441020  RH  063%=      5-min Rain = 0
KSP2 190358Z 25002KT 05/M02 A2998 RMK A01 T00451018  RH  063%=      5-min Rain = 0
KSP2 190359Z 24002KT 05/M02 A2998 RMK A01 T00451016  RH  064%=      5-min Rain = 0
KSP2 190400Z 24002KT 04/M02 A2998 RMK A01 T00441015  RH  065%=      5-min Rain = 0
KSP2 190401Z 24002KT 04/M02 A2998 RMK A01 T00441015  RH  066%=      5-min Rain = 0
KSP2 190402Z 25002KT 04/M02 A2998 RMK A01 T00431015  RH  066%=      5-min Rain = 0
KSP2 190403Z 26002KT 04/M01 A2998 RMK A01 T00431014  RH  066%=      5-min Rain = 0
KSP2 190404Z 27002KT 04/M01 A2998 RMK A01 T00421014  RH  067%=      5-min Rain = 0
KSP2 190405Z 27001KT 04/M01 A2998 RMK A01 T00421014  RH  067%=      5-min Rain = 0
KSP2 190406Z 27001KT 04/M02 A2998 RMK A01 T00411015  RH  067%=      5-min Rain = 0
KSP2 190407Z 27001KT 04/M02 A2998 RMK A01 T00411015  RH  067%=      5-min Rain = 0
KSP2 190408Z 27001KT 04/M02 A2998 RMK A01 T00411015  RH  067%=      5-min Rain = 0
KSP2 190409Z 27001KT 04/M02 A2998 RMK A01 T00421016  RH  066%=      5-min Rain = 0
KSP2 190410Z 27001KT 04/M02 A2998 RMK A01 T00431017  RH  065%=      5-min Rain = 0
KSP2 190411Z 25002KT 04/M02 A2998 RMK A01 T00431017  RH  065%=      5-min Rain = 0
KSP2 190412Z 27002KT 04/M02 A2998 RMK A01 T00431018  RH  065%=      5-min Rain = 0
KSP2 190413Z 28002KT 04/M02 A2998 RMK A01 T00421018  RH  065%=      5-min Rain = 0
KSP2 190414Z 29002KT 04/M02 A2998 RMK A01 T00411019  RH  065%=      5-min Rain = 0
KSP2 190415Z 29001KT 04/M02 A2998 RMK A01 T00401019  RH  065%=      5-min Rain = 0
KSP2 190416Z 29001KT 04/M02 A2998 RMK A01 T00401019  RH  066%=      5-min Rain = 0
KSP2 190417Z 29001KT 04/M02 A2998 RMK A01 T00391020  RH  065%=      5-min Rain = 0
KSP2 190418Z 29000KT 04/M02 A2998 RMK A01 T00391021  RH  065%=      5-min Rain = 0
KSP2 190419Z 29000KT 04/M02 A2998 RMK A01 T00401021  RH  064%=      5-min Rain = 0
KSP2 190420Z 00000KT 04/M02 A2997 RMK A01 T00391021  RH  065%=      5-min Rain = 0
KSP2 190421Z 00000KT 04/M02 A2997 RMK A01 T00391020  RH  066%=      5-min Rain = 0
KSP2 190422Z 00000KT 04/M02 A2997 RMK A01 T00381019  RH  066%=      5-min Rain = 0
KSP2 190423Z 29000KT 04/M02 A2997 RMK A01 T00391018  RH  066%=      5-min Rain = 0
KSP2 190424Z 00000KT 04/M02 A2997 RMK A01 T00391017  RH  067%=      5-min Rain = 0
KSP2 190425Z 00000KT 04/M02 A2998 RMK A01 T00401018  RH  066%=      5-min Rain = 0
KSP2 190426Z 00000KT 04/M02 A2998 RMK A01 T00391020  RH  065%=      5-min Rain = 0
KSP2 190427Z 00000KT 04/M02 A2998 RMK A01 T00381022  RH  065%=      5-min Rain = 0
KSP2 190428Z 00000KT 04/M02 A2998 RMK A01 T00361023  RH  065%=      5-min Rain = 0
KSP2 190429Z 29000KT 04/M02 A2998 RMK A01 T00351022  RH  066%=      5-min Rain = 0
KSP2 190430Z 29001KT 04/M02 A2998 RMK A01 T00351021  RH  067%=      5-min Rain = 0
KSP2 190431Z 29001KT 04/M02 A2998 RMK A01 T00351020  RH  067%=      5-min Rain = 0
KSP2 190432Z 29001KT 04/M02 A2998 RMK A01 T00351020  RH  067%=      5-min Rain = 0
KSP2 190433Z 29001KT 04/M02 A2998 RMK A01 T00361019  RH  067%=      5-min Rain = 0
KSP2 190434Z 29001KT 04/M02 A2998 RMK A01 T00371018  RH  067%=      5-min Rain = 0
KSP2 190435Z 29001KT 04/M02 A2998 RMK A01 T00371018  RH  067%=      5-min Rain = 0
KSP2 190436Z 29001KT 04/M02 A2998 RMK A01 T00371018  RH  067%=      5-min Rain = 0
KSP2 190437Z 29001KT 04/M02 A2998 RMK A01 T00381019  RH  066%=      5-min Rain = 0
KSP2 190438Z 29001KT 04/M02 A2998 RMK A01 T00361021  RH  066%=      5-min Rain = 0
KSP2 190439Z 34001KT 04/M02 A2998 RMK A01 T00351021  RH  067%=      5-min Rain = 0
KSP2 190440Z 34003KT 03/M02 A2998 RMK A01 T00341022  RH  067%=      5-min Rain = 0
KSP2 190441Z 32003KT 03/M02 A2998 RMK A01 T00321020  RH  069%=      5-min Rain = 0
KSP2 190442Z 30002KT 03/M02 A2998 RMK A01 T00331018  RH  070%=      5-min Rain = 0
KSP2 190443Z 33002KT 03/M02 A2998 RMK A01 T00331017  RH  070%=      5-min Rain = 0
KSP2 190444Z 33003KT 03/M02 A2998 RMK A01 T00341018  RH  069%=      5-min Rain = 0
KSP2 190445Z 33003KT 04/M02 A2998 RMK A01 T00351019  RH  068%=      5-min Rain = 0
KSP2 190446Z 32002KT 04/M02 A2998 RMK A01 T00381019  RH  067%=      5-min Rain = 0
KSP2 190447Z 33002KT 04/M02 A2998 RMK A01 T00391019  RH  066%=      5-min Rain = 0
KSP2 190448Z 34002KT 04/M02 A2998 RMK A01 T00391019  RH  066%=      5-min Rain = 0
KSP2 190449Z 33003KT 04/M02 A2998 RMK A01 T00391019  RH  066%=      5-min Rain = 0
KSP2 190450Z 32002KT 04/M02 A2998 RMK A01 T00401018  RH  066%=      5-min Rain = 0
KSP2 190451Z 33002KT 04/M02 A2998 RMK A01 T00401018  RH  066%=      5-min Rain = 0
KSP2 190452Z 33002KT 04/M02 A2997 RMK A01 T00401018  RH  066%=      5-min Rain = 0
KSP2 190453Z 32002KT 04/M02 A2997 RMK A01 T00401018  RH  066%=      5-min Rain = 0
KSP2 190454Z 31002KT 04/M02 A2997 RMK A01 T00401020  RH  065%=      5-min Rain = 0
KSP2 190455Z 31002KT 04/M02 A2997 RMK A01 T00381021  RH  065%=      5-min Rain = 0
KSP2 190456Z 32002KT 04/M02 A2998 RMK A01 T00381021  RH  066%=      5-min Rain = 0
KSP2 190457Z 32002KT 04/M02 A2998 RMK A01 T00361023  RH  065%=      5-min Rain = 0
KSP2 190458Z 31002KT 03/M02 A2998 RMK A01 T00331024  RH  066%=      5-min Rain = 0
KSP2 190459Z 30002KT 03/M02 A2998 RMK A01 T00311022  RH  068%=      5-min Rain = 0
KSP2 190500Z 29002KT 03/M02 A2998 RMK A01 T00331019  RH  069%=      5-min Rain = 0
KSP2 190501Z 29001KT 03/M02 A2998 RMK A01 T00341021  RH  067%=      5-min Rain = 0
KSP2 190502Z 30002KT 03/M02 A2998 RMK A01 T00331024  RH  066%=      5-min Rain = 0
KSP2 190503Z 30002KT 03/M03 A2998 RMK A01 T00291026  RH  067%=      5-min Rain = 0
KSP2 190504Z 29002KT 03/M02 A2998 RMK A01 T00271024  RH  069%=      5-min Rain = 0
KSP2 190505Z 29002KT 03/M02 A2998 RMK A01 T00271022  RH  070%=      5-min Rain = 0
KSP2 190506Z 30002KT 03/M02 A2998 RMK A01 T00281020  RH  070%=      5-min Rain = 0
KSP2 190507Z 31002KT 03/M02 A2998 RMK A01 T00291021  RH  070%=      5-min Rain = 0
KSP2 190508Z 32002KT 03/M02 A2998 RMK A01 T00301020  RH  070%=      5-min Rain = 0
KSP2 190509Z 32002KT 03/M02 A2998 RMK A01 T00301020  RH  070%=      5-min Rain = 0
KSP2 190510Z 32002KT 03/M02 A2998 RMK A01 T00321019  RH  069%=      5-min Rain = 0
KSP2 190511Z 32001KT 03/M02 A2998 RMK A01 T00341020  RH  068%=      5-min Rain = 0
KSP2 190512Z 33002KT 03/M02 A2998 RMK A01 T00341020  RH  068%=      5-min Rain = 0
KSP2 190513Z 33002KT 03/M02 A2998 RMK A01 T00341020  RH  068%=      5-min Rain = 0
KSP2 190514Z 33002KT 03/M02 A2998 RMK A01 T00341020  RH  067%=      5-min Rain = 0
KSP2 190515Z 31002KT 03/M02 A2998 RMK A01 T00341021  RH  067%=      5-min Rain = 0
KSP2 190516Z 31001KT 03/M02 A2998 RMK A01 T00341021  RH  067%=      5-min Rain = 0
KSP2 190517Z 31001KT 03/M02 A2998 RMK A01 T00341022  RH  067%=      5-min Rain = 0
KSP2 190518Z 00000KT 03/M02 A2998 RMK A01 T00311024  RH  067%=      5-min Rain = 0
KSP2 190519Z 00000KT 03/M03 A2998 RMK A01 T00281025  RH  068%=      5-min Rain = 0
KSP2 190520Z 25001KT 03/M03 A2998 RMK A01 T00261025  RH  069%=      5-min Rain = 0
KSP2 190521Z 24002KT 02/M03 A2998 RMK A01 T00241026  RH  070%=      5-min Rain = 0
KSP2 190522Z 23002KT 02/M03 A2998 RMK A01 T00221025  RH  071%=      5-min Rain = 0
KSP2 190523Z 24002KT 02/M03 A2998 RMK A01 T00221025  RH  071%=      5-min Rain = 0
KSP2 190524Z 27002KT 02/M03 A2998 RMK A01 T00221025  RH  071%=      5-min Rain = 0
KSP2 190525Z 26002KT 02/M03 A2998 RMK A01 T00221025  RH  071%=      5-min Rain = 0
KSP2 190526Z 27002KT 02/M03 A2998 RMK A01 T00221026  RH  071%=      5-min Rain = 0
KSP2 190527Z 27002KT 02/M03 A2998 RMK A01 T00221026  RH  071%=      5-min Rain = 0
KSP2 190528Z 26002KT 02/M03 A2999 RMK A01 T00221026  RH  070%=      5-min Rain = 0
KSP2 190529Z 24002KT 02/M03 A2999 RMK A01 T00221027  RH  070%=      5-min Rain = 0
KSP2 190530Z 25002KT 02/M03 A2999 RMK A01 T00211027  RH  071%=      5-min Rain = 0
KSP2 190531Z 26002KT 02/M03 A2998 RMK A01 T00201026  RH  072%=      5-min Rain = 0
KSP2 190532Z 26002KT 02/M03 A2998 RMK A01 T00201025  RH  072%=      5-min Rain = 0
KSP2 190533Z 25002KT 02/M02 A2998 RMK A01 T00201024  RH  073%=      5-min Rain = 0
KSP2 190534Z 24003KT 02/M02 A2998 RMK A01 T00201024  RH  073%=      5-min Rain = 0
KSP2 190535Z 24003KT 02/M02 A2999 RMK A01 T00201024  RH  073%=      5-min Rain = 0
KSP2 190536Z 24003KT 02/M02 A2999 RMK A01 T00191024  RH  073%=      5-min Rain = 0
KSP2 190537Z 24003KT 02/M03 A2999 RMK A01 T00191025  RH  073%=      5-min Rain = 0
KSP2 190538Z 24003KT 02/M02 A2999 RMK A01 T00181024  RH  073%=      5-min Rain = 0
KSP2 190539Z 26003KT 02/M02 A2999 RMK A01 T00181024  RH  074%=      5-min Rain = 0
KSP2 190540Z 27002KT 02/M02 A2999 RMK A01 T00181024  RH  074%=      5-min Rain = 0
KSP2 190541Z 27003KT 02/M03 A2999 RMK A01 T00191025  RH  073%=      5-min Rain = 0
KSP2 190542Z 27003KT 02/M02 A2999 RMK A01 T00211024  RH  072%=      5-min Rain = 0
KSP2 190543Z 27003KT 02/M02 A2999 RMK A01 T00221024  RH  071%=      5-min Rain = 0
KSP2 190544Z 27003KT 02/M03 A2999 RMK A01 T00231025  RH  070%=      5-min Rain = 0
KSP2 190545Z 26003KT 02/M03 A2999 RMK A01 T00231025  RH  070%=      5-min Rain = 0
KSP2 190546Z 26003KT 02/M03 A2999 RMK A01 T00231025  RH  070%=      5-min Rain = 0
KSP2 190547Z 27003KT 02/M02 A2999 RMK A01 T00241024  RH  071%=      5-min Rain = 0
KSP2 190548Z 27003KT 03/M02 A2999 RMK A01 T00261023  RH  070%=      5-min Rain = 0
KSP2 190549Z 27003KT 03/M02 A2999 RMK A01 T00281023  RH  069%=      5-min Rain = 0
KSP2 190550Z 27004KT 03/M02 A2999 RMK A01 T00291023  RH  068%=      5-min Rain = 0
KSP2 190551Z 26003KT 03/M02 A2999 RMK A01 T00301024  RH  068%=      5-min Rain = 0
KSP2 190552Z 26003KT 03/M02 A2999 RMK A01 T00301024  RH  068%=      5-min Rain = 0
KSP2 190553Z 27003KT 03/M02 A2999 RMK A01 T00291024  RH  068%=      5-min Rain = 0
KSP2 190554Z 27002KT 03/M02 A2999 RMK A01 T00291022  RH  069%=      5-min Rain = 0
KSP2 190555Z 28001KT 03/M02 A2999 RMK A01 T00281022  RH  069%=      5-min Rain = 0
KSP2 190556Z 28002KT 03/M02 A2999 RMK A01 T00281021  RH  070%=      5-min Rain = 0
KSP2 190557Z 28002KT 03/M02 A2999 RMK A01 T00291021  RH  070%=      5-min Rain = 0
KSP2 190558Z 28001KT 03/M02 A2999 RMK A01 T00301021  RH  070%=      5-min Rain = 0
KSP2 190559Z 28001KT 03/M02 A2999 RMK A01 T00301021  RH  069%=      5-min Rain = 0

Page generated in 0.0719 seconds.